[{"header": {"parameterCategory": 1, "parameterNumber": 2, "dx": 0.06612293990616946, "dy": 0.0552356325346848, "nx": 98, "ny": 59, "la1": 35.046912555036876, "la2": 31.78801023549047, "lo1": -121.43107172385933, "lo2": -114.95102361305473, "refTime": "2026041001"}, "data": [12.52, 12.52, 12.52, 12.07, 11.62, 11.62, 11.18, 10.73, 10.73, 10.28, 10.28, 9.83, 9.83, 9.83, 9.39, 9.39, 9.39, 8.94, 8.94, 8.94, 8.94, 8.94, 8.94, 8.94, 9.39, 9.39, 9.83, 9.83, 10.28, 10.28, 10.28, 9.83, 9.39, 8.94, 8.94, 8.49, 8.49, 8.49, 8.94, 9.39, 9.39, 9.39, 8.94, 8.49, 8.49, 8.05, 8.05, 8.05, 8.05, 8.05, 8.49, 8.49, 8.49, 8.94, 8.94, 9.39, 9.39, 9.39, 9.39, 9.83, 9.83, 9.83, 9.39, 8.94, 8.49, 8.05, 7.6, 7.15, 7.6, 8.05, 8.94, 9.83, 10.28, 10.28, 9.83, 9.39, 8.94, 8.94, 8.49, 8.49, 8.49, 8.49, 8.49, 8.49, 8.49, 8.05, 8.05, 7.6, 7.6, 7.15, 7.6, 7.6, 7.6, 8.05, 8.49, 8.49, 8.49, 8.05, 12.96, 12.52, 12.52, 12.07, 11.62, 11.62, 11.18, 10.73, 10.28, 10.28, 9.83, 9.83, 9.83, 9.83, 9.39, 9.39, 9.39, 8.94, 8.94, 8.94, 8.94, 8.94, 8.94, 8.94, 9.39, 9.39, 9.83, 9.83, 10.28, 10.28, 10.28, 9.83, 9.83, 9.39, 8.94, 8.94, 8.94, 8.94, 8.94, 9.39, 9.39, 9.39, 8.94, 8.94, 8.49, 8.05, 8.05, 8.05, 8.05, 8.05, 8.49, 8.49, 8.49, 8.94, 8.94, 9.39, 9.39, 9.39, 9.39, 9.83, 9.83, 9.83, 9.83, 8.94, 8.49, 8.05, 7.6, 7.6, 8.05, 8.49, 8.94, 9.83, 10.28, 10.28, 9.83, 9.39, 8.94, 8.94, 8.49, 8.49, 8.49, 8.49, 8.49, 8.49, 8.49, 8.05, 8.05, 7.6, 7.6, 7.15, 7.6, 7.6, 7.6, 8.05, 8.49, 8.49, 8.49, 8.05, 12.96, 12.52, 12.07, 12.07, 11.62, 11.18, 11.18, 10.73, 10.28, 10.28, 9.83, 9.83, 9.83, 9.83, 9.39, 9.39, 9.39, 8.94, 8.94, 8.94, 8.94, 8.94, 8.94, 8.94, 8.94, 9.39, 9.83, 9.83, 9.83, 10.28, 10.28, 10.28, 9.83, 9.39, 8.94, 8.94, 8.94, 9.39, 9.39, 9.83, 9.83, 9.39, 9.39, 8.94, 8.49, 8.05, 8.05, 8.05, 8.05, 8.05, 8.49, 8.49, 8.49, 8.94, 8.94, 9.39, 9.39, 9.39, 9.39, 9.83, 9.83, 9.83, 9.83, 8.94, 8.49, 8.05, 8.05, 8.05, 8.05, 8.49, 8.94, 9.83, 10.28, 10.28, 9.83, 9.39, 8.94, 8.94, 8.94, 8.49, 8.49, 8.94, 8.49, 8.49, 8.49, 8.49, 8.05, 8.05, 7.6, 7.6, 7.6, 7.6, 8.05, 8.05, 8.49, 8.49, 8.49, 8.05, 12.96, 12.52, 12.07, 12.07, 11.62, 11.18, 10.73, 10.73, 10.28, 10.28, 9.83, 9.83, 9.83, 9.83, 9.39, 9.39, 9.39, 9.39, 8.94, 8.94, 8.94, 8.94, 8.94, 8.94, 8.94, 9.39, 9.39, 9.83, 9.83, 10.28, 10.28, 10.28, 10.28, 9.83, 9.39, 8.94, 8.94, 9.39, 9.83, 9.83, 9.83, 9.83, 9.39, 8.94, 8.49, 8.05, 8.05, 8.05, 8.05, 8.05, 8.49, 8.49, 8.94, 8.94, 8.94, 8.94, 8.94, 9.39, 9.39, 9.83, 10.28, 10.28, 9.83, 8.94, 8.49, 8.05, 8.05, 8.49, 8.49, 8.49, 8.94, 9.83, 10.28, 10.28, 10.28, 9.39, 9.39, 8.94, 8.94, 8.94, 8.94, 8.94, 8.94, 8.94, 8.94, 8.49, 8.49, 8.05, 8.05, 7.6, 7.6, 7.6, 8.05, 8.05, 8.49, 8.49, 8.05, 8.05, 12.52, 12.52, 12.07, 11.62, 11.62, 11.18, 10.73, 10.73, 10.28, 9.83, 9.83, 9.83, 9.83, 9.83, 9.39, 9.39, 9.39, 9.39, 8.94, 8.94, 8.94, 8.94, 8.94, 8.94, 9.39, 9.39, 9.39, 9.83, 9.83, 10.28, 10.28, 10.28, 10.28, 9.83, 9.39, 8.94, 9.39, 9.83, 10.28, 10.28, 9.83, 9.83, 9.39, 8.94, 8.49, 8.49, 8.05, 8.05, 8.05, 8.05, 8.49, 8.49, 8.94, 8.94, 8.94, 8.94, 8.94, 9.39, 9.39, 9.83, 10.28, 10.28, 9.39, 8.94, 8.49, 8.05, 8.49, 8.49, 8.49, 8.49, 8.94, 9.39, 10.28, 10.28, 10.28, 9.83, 9.39, 8.94, 8.94, 8.94, 8.94, 8.94, 8.94, 8.94, 8.94, 8.94, 8.49, 8.05, 8.05, 7.6, 7.6, 7.6, 8.05, 8.05, 8.49, 8.49, 8.05, 8.05, 12.52, 12.07, 12.07, 11.62, 11.18, 11.18, 10.73, 10.73, 10.28, 9.83, 9.83, 9.83, 9.83, 9.83, 9.83, 9.39, 9.39, 9.39, 9.39, 8.94, 9.39, 9.39, 9.39, 9.39, 9.39, 9.39, 9.39, 9.39, 9.83, 9.83, 10.28, 10.73, 10.28, 9.83, 9.39, 9.39, 9.39, 9.83, 10.28, 10.28, 10.28, 10.28, 9.83, 9.39, 8.94, 8.49, 8.05, 8.05, 8.05, 8.49, 8.49, 8.49, 8.94, 8.94, 8.94, 8.94, 8.94, 9.39, 9.39, 10.28, 10.28, 10.28, 9.39, 8.94, 8.49, 8.05, 8.49, 8.94, 8.94, 8.94, 8.94, 9.39, 9.83, 10.28, 10.28, 9.83, 9.39, 9.39, 8.94, 8.94, 8.94, 8.94, 9.39, 9.39, 9.39, 8.94, 8.49, 8.49, 8.05, 7.6, 7.6, 7.6, 8.05, 8.05, 8.49, 8.05, 8.05, 8.05, 12.52, 12.07, 12.07, 11.62, 11.18, 11.18, 10.73, 10.28, 10.28, 9.83, 9.83, 9.83, 9.83, 9.83, 9.83, 9.39, 9.39, 9.39, 9.39, 9.39, 9.39, 9.39, 9.39, 9.39, 9.39, 9.39, 9.39, 9.39, 9.39, 9.83, 10.28, 10.73, 10.28, 9.83, 9.39, 9.39, 9.39, 9.83, 10.28, 10.73, 10.73, 10.73, 10.28, 9.39, 8.94, 8.49, 8.05, 8.05, 8.05, 8.49, 8.49, 8.49, 8.94, 8.94, 8.49, 8.49, 8.94, 9.39, 9.83, 10.28, 10.73, 10.28, 9.39, 8.94, 8.49, 8.05, 8.49, 8.94, 8.94, 8.94, 9.39, 9.83, 10.28, 9.83, 9.83, 9.39, 9.39, 9.39, 9.39, 8.94, 8.94, 9.39, 9.39, 9.39, 9.39, 8.94, 8.49, 8.49, 8.05, 7.6, 7.6, 7.6, 7.6, 8.05, 8.05, 8.05, 8.05, 8.05, 12.52, 12.07, 11.62, 11.62, 11.18, 11.18, 10.73, 10.28, 10.28, 9.83, 9.83, 9.83, 9.83, 9.83, 9.83, 9.83, 9.39, 9.39, 9.39, 9.39, 9.39, 9.39, 9.39, 9.39, 9.39, 9.39, 9.39, 9.39, 9.39, 9.83, 10.28, 10.73, 10.28, 9.83, 9.39, 9.39, 9.39, 9.83, 10.28, 10.73, 10.73, 10.73, 10.73, 9.83, 8.94, 8.49, 8.05, 7.6, 8.05, 8.49, 8.49, 8.49, 8.94, 8.94, 8.49, 8.49, 8.94, 9.39, 10.28, 10.73, 10.28, 9.83, 9.39, 8.94, 8.49, 8.49, 8.49, 8.49, 8.94, 9.39, 9.83, 10.28, 10.28, 9.83, 9.39, 9.39, 9.39, 9.39, 9.39, 8.94, 9.39, 9.39, 9.39, 9.39, 9.39, 8.94, 8.49, 8.49, 8.05, 7.6, 7.6, 7.6, 7.6, 8.05, 8.05, 8.05, 8.05, 8.05, 12.07, 12.07, 11.62, 11.62, 11.18, 10.73, 10.73, 10.28, 10.28, 9.83, 9.83, 9.83, 9.83, 9.83, 9.83, 9.83, 9.39, 9.39, 9.39, 9.39, 9.39, 9.39, 9.39, 9.39, 9.39, 9.39, 9.39, 9.83, 9.83, 9.83, 10.28, 10.73, 10.28, 9.83, 9.39, 9.39, 9.39, 9.83, 9.83, 10.28, 10.73, 11.18, 10.73, 10.28, 9.39, 8.49, 8.05, 7.6, 7.6, 8.05, 8.49, 8.94, 8.94, 8.94, 8.49, 8.49, 8.94, 9.39, 10.28, 10.73, 10.28, 9.83, 9.39, 8.94, 8.49, 8.49, 8.05, 8.49, 8.94, 9.39, 9.83, 10.28, 10.73, 10.28, 9.83, 9.39, 8.94, 8.94, 8.94, 9.39, 8.94, 9.39, 9.39, 9.39, 9.39, 8.94, 8.94, 8.49, 8.05, 8.05, 7.6, 7.6, 7.6, 8.05, 8.05, 8.05, 8.05, 8.05, 12.07, 12.07, 11.62, 11.18, 11.18, 10.73, 10.73, 10.28, 10.28, 9.83, 9.83, 9.83, 9.83, 9.83, 9.83, 9.83, 9.83, 9.39, 9.39, 9.39, 9.39, 9.39, 9.39, 9.39, 9.39, 9.39, 9.83, 9.83, 9.83, 9.83, 9.83, 10.28, 10.28, 9.83, 9.39, 9.39, 9.39, 9.83, 9.83, 10.28, 10.73, 11.18, 10.73, 10.28, 9.83, 8.94, 8.05, 7.6, 7.6, 7.6, 8.05, 8.49, 8.94, 8.94, 8.94, 8.49, 8.94, 9.83, 10.73, 11.18, 10.28, 9.83, 9.39, 9.39, 8.94, 8.49, 8.05, 8.49, 8.94, 9.39, 10.28, 10.73, 10.73, 10.28, 9.83, 9.39, 8.94, 8.94, 8.94, 8.94, 9.39, 9.39, 9.39, 9.39, 9.39, 9.39, 8.94, 8.94, 8.49, 8.05, 7.6, 7.6, 7.6, 7.6, 7.6, 7.6, 8.05, 8.05, 12.07, 11.62, 11.62, 11.18, 11.18, 10.73, 10.73, 10.28, 10.28, 9.83, 9.83, 9.83, 9.83, 9.83, 9.83, 9.83, 9.83, 9.83, 9.39, 9.39, 9.83, 9.83, 9.83, 9.39, 9.39, 9.83, 9.83, 10.28, 9.83, 9.83, 9.83, 10.28, 10.28, 9.83, 9.39, 8.94, 8.94, 9.39, 9.83, 9.83, 10.73, 10.73, 10.73, 10.73, 9.83, 8.94, 8.49, 8.05, 7.6, 7.6, 8.05, 8.05, 8.49, 8.94, 8.94, 8.49, 8.94, 9.83, 10.73, 11.18, 10.28, 9.83, 9.39, 9.39, 8.94, 8.49, 8.05, 8.49, 8.94, 9.83, 10.73, 11.18, 11.18, 10.28, 9.83, 9.39, 9.39, 9.39, 9.39, 9.39, 9.39, 9.39, 9.83, 9.39, 9.83, 9.39, 9.39, 8.94, 8.49, 8.05, 7.6, 7.6, 7.6, 7.6, 7.6, 7.6, 7.6, 8.05, 12.07, 11.62, 11.62, 11.18, 11.18, 10.73, 10.73, 10.28, 10.28, 10.28, 9.83, 9.83, 9.83, 9.83, 9.83, 9.83, 9.83, 9.83, 9.83, 9.83, 9.83, 9.83, 9.83, 9.83, 9.83, 9.83, 10.28, 10.28, 10.28, 9.83, 9.83, 10.28, 10.28, 9.83, 9.39, 8.94, 8.94, 9.39, 9.83, 9.83, 10.28, 10.73, 10.73, 10.73, 9.83, 9.39, 8.94, 8.49, 8.05, 8.05, 8.05, 8.05, 8.05, 8.49, 8.49, 8.49, 8.49, 9.39, 11.18, 11.62, 10.73, 9.83, 9.83, 9.39, 9.39, 8.49, 8.05, 8.05, 8.49, 9.39, 10.73, 11.62, 11.62, 10.73, 9.83, 9.39, 9.39, 9.39, 9.39, 9.39, 9.83, 9.83, 9.83, 9.83, 9.83, 9.83, 9.39, 8.94, 8.94, 8.05, 7.6, 7.15, 7.15, 7.15, 7.15, 7.15, 7.6, 7.6, 12.07, 11.62, 11.62, 11.18, 11.18, 10.73, 10.73, 10.28, 10.28, 10.28, 9.83, 9.83, 9.83, 9.83, 9.83, 9.83, 9.83, 9.83, 9.83, 9.83, 9.83, 9.83, 9.83, 9.83, 9.83, 10.28, 10.28, 10.73, 10.28, 10.28, 9.83, 10.28, 10.28, 9.83, 9.39, 8.94, 8.94, 9.39, 9.83, 9.83, 10.28, 10.28, 10.73, 10.28, 10.28, 9.83, 8.94, 8.49, 8.49, 8.05, 8.05, 8.05, 8.05, 8.49, 8.49, 8.05, 8.05, 8.94, 10.73, 11.62, 11.18, 10.28, 9.83, 9.83, 9.39, 8.94, 8.05, 7.6, 8.05, 8.94, 10.73, 12.07, 12.07, 11.18, 10.28, 9.83, 9.39, 9.39, 9.39, 9.83, 9.83, 9.83, 9.83, 9.83, 9.83, 9.83, 9.39, 9.39, 8.94, 8.49, 7.6, 7.15, 7.15, 7.15, 7.15, 7.15, 7.6, 7.6, 12.07, 11.62, 11.62, 11.18, 11.18, 10.73, 10.73, 10.73, 10.28, 10.28, 10.28, 9.83, 9.83, 9.83, 9.83, 9.83, 9.83, 9.83, 9.83, 10.28, 10.28, 10.28, 9.83, 9.83, 9.83, 10.28, 10.73, 10.73, 10.73, 10.28, 9.83, 9.83, 9.83, 9.83, 9.39, 9.39, 8.94, 9.39, 9.39, 9.83, 9.83, 10.28, 10.28, 10.28, 10.28, 9.83, 9.39, 8.94, 8.94, 8.49, 8.49, 8.49, 8.49, 8.49, 8.49, 8.05, 8.05, 8.05, 9.83, 11.18, 11.18, 10.73, 10.28, 10.28, 9.83, 9.39, 8.49, 8.05, 7.6, 8.49, 10.28, 12.07, 12.52, 11.62, 10.73, 10.28, 9.83, 9.83, 9.83, 9.83, 9.83, 9.83, 9.83, 9.83, 9.83, 9.83, 9.39, 9.39, 8.94, 8.49, 8.05, 7.15, 6.71, 6.71, 6.71, 7.15, 7.15, 7.6, 12.07, 11.62, 11.62, 11.18, 11.18, 10.73, 10.73, 10.73, 10.28, 10.28, 10.28, 10.28, 9.83, 9.83, 9.83, 10.28, 10.28, 10.28, 10.28, 10.28, 10.28, 10.28, 9.83, 9.83, 10.28, 10.28, 10.73, 10.73, 10.73, 10.28, 9.83, 9.83, 9.83, 9.83, 9.83, 9.39, 8.94, 9.39, 9.39, 9.83, 9.83, 9.83, 10.28, 10.28, 9.83, 9.83, 9.39, 8.94, 8.94, 8.94, 8.49, 8.49, 8.49, 8.49, 8.05, 8.05, 8.49, 8.05, 8.49, 10.28, 11.18, 10.73, 10.28, 10.28, 9.83, 9.39, 8.94, 8.05, 7.6, 8.05, 9.83, 11.62, 12.52, 12.07, 11.18, 10.73, 10.28, 9.83, 9.83, 9.83, 9.83, 9.83, 9.83, 9.83, 9.83, 9.83, 9.39, 9.39, 8.94, 8.94, 8.05, 7.15, 6.71, 6.71, 6.71, 7.15, 7.6, 7.6, 12.07, 12.07, 11.62, 11.18, 11.18, 11.18, 10.73, 10.73, 10.28, 10.28, 10.28, 10.28, 10.28, 10.28, 10.28, 10.28, 10.28, 10.28, 10.28, 10.28, 10.73, 10.28, 10.28, 9.83, 10.28, 10.73, 10.73, 10.73, 10.73, 10.28, 10.28, 9.83, 9.83, 9.83, 9.83, 9.39, 9.39, 9.39, 9.39, 9.83, 9.83, 9.83, 9.83, 9.83, 9.83, 9.83, 9.39, 9.39, 8.94, 8.94, 8.94, 8.49, 8.49, 8.49, 8.49, 8.49, 8.49, 8.49, 8.94, 9.83, 10.73, 10.73, 10.73, 10.28, 10.28, 9.83, 8.94, 8.49, 7.6, 7.6, 8.94, 11.18, 12.52, 12.07, 11.62, 11.18, 10.73, 10.28, 9.83, 9.83, 9.83, 9.83, 9.83, 9.83, 9.83, 9.83, 9.39, 9.39, 9.39, 8.94, 8.49, 7.15, 6.71, 6.71, 7.15, 7.15, 7.6, 7.6, 12.07, 12.07, 11.62, 11.62, 11.18, 11.18, 10.73, 10.73, 10.73, 10.28, 10.28, 10.28, 10.28, 10.28, 10.28, 10.28, 10.28, 10.28, 10.28, 10.73, 10.73, 10.73, 10.28, 10.28, 10.28, 10.73, 10.73, 10.73, 10.73, 10.28, 10.28, 9.83, 9.83, 9.83, 9.39, 9.39, 9.39, 9.39, 9.39, 9.39, 9.39, 9.39, 9.39, 9.83, 9.83, 9.39, 9.39, 9.39, 9.39, 8.94, 8.49, 8.49, 8.49, 8.49, 8.49, 8.49, 8.94, 8.94, 8.94, 9.39, 10.28, 10.73, 10.73, 10.28, 10.28, 9.83, 9.39, 8.49, 8.05, 7.6, 8.05, 10.73, 12.07, 12.07, 11.62, 11.18, 10.73, 10.28, 9.83, 9.83, 10.28, 10.28, 9.83, 9.83, 9.83, 9.83, 9.39, 9.39, 8.94, 8.94, 8.05, 7.15, 7.15, 7.15, 7.15, 7.6, 7.6, 7.6, 12.07, 12.07, 11.62, 11.62, 11.18, 11.18, 10.73, 10.73, 10.73, 10.73, 10.28, 10.28, 10.28, 10.28, 10.28, 10.28, 10.28, 10.28, 10.73, 10.73, 11.18, 10.73, 10.28, 10.28, 10.28, 10.73, 10.73, 10.73, 10.73, 10.73, 10.28, 10.28, 9.83, 9.39, 9.39, 8.94, 8.94, 9.39, 9.39, 9.39, 9.39, 9.39, 9.39, 9.39, 9.39, 9.39, 9.39, 9.39, 9.39, 9.39, 8.94, 8.49, 8.49, 8.49, 8.49, 8.94, 8.94, 8.94, 9.39, 9.83, 10.28, 10.28, 10.73, 10.73, 10.28, 9.83, 9.39, 8.94, 8.49, 7.6, 7.6, 9.83, 12.07, 12.52, 12.07, 11.18, 10.73, 10.28, 10.28, 10.28, 10.28, 10.28, 9.83, 9.83, 9.83, 9.83, 9.83, 9.39, 9.39, 8.94, 8.49, 7.6, 7.15, 7.15, 7.6, 7.6, 7.6, 7.6, 12.07, 12.07, 11.62, 11.62, 11.18, 11.18, 11.18, 10.73, 10.73, 10.73, 10.73, 10.73, 10.73, 10.73, 10.73, 10.73, 10.73, 10.73, 10.73, 10.73, 11.18, 11.18, 10.73, 10.28, 10.73, 10.73, 10.73, 10.73, 10.73, 10.28, 10.28, 10.28, 9.83, 9.39, 9.39, 8.94, 8.94, 8.94, 8.94, 9.39, 9.39, 9.39, 9.39, 9.39, 9.39, 9.39, 9.39, 9.39, 9.39, 9.39, 8.94, 8.94, 8.49, 8.49, 8.49, 8.94, 8.94, 9.39, 9.39, 9.83, 9.83, 10.28, 10.28, 10.73, 10.28, 10.28, 9.83, 8.94, 8.49, 7.6, 7.6, 8.94, 11.18, 12.07, 12.07, 11.18, 10.73, 10.28, 10.28, 10.73, 10.28, 9.83, 9.83, 9.83, 9.83, 9.83, 9.83, 9.39, 8.94, 8.94, 8.49, 8.05, 7.6, 7.6, 7.6, 8.05, 8.05, 8.05, 12.07, 12.07, 11.62, 11.62, 11.18, 11.18, 11.18, 10.73, 10.73, 10.73, 10.73, 10.73, 10.73, 10.73, 10.73, 10.73, 10.73, 10.73, 10.73, 11.18, 11.18, 11.18, 10.73, 10.73, 10.73, 10.73, 10.73, 10.73, 10.73, 10.28, 10.28, 10.28, 9.83, 9.39, 8.94, 8.94, 8.49, 8.94, 8.94, 8.94, 9.39, 9.39, 9.39, 8.94, 8.94, 9.39, 9.39, 9.83, 9.83, 9.39, 8.94, 8.94, 8.94, 8.94, 8.94, 8.94, 8.94, 9.39, 9.83, 9.83, 10.28, 10.28, 10.28, 10.28, 10.28, 10.28, 9.83, 9.39, 8.94, 8.05, 7.6, 8.49, 10.28, 12.07, 12.07, 11.62, 10.73, 10.28, 10.28, 10.73, 10.28, 10.28, 9.83, 9.83, 9.83, 9.83, 9.83, 9.39, 8.94, 8.94, 8.49, 8.49, 8.05, 7.6, 7.6, 7.6, 8.05, 8.05, 12.07, 12.07, 11.62, 11.62, 11.62, 11.18, 11.18, 11.18, 10.73, 10.73, 10.73, 10.73, 10.73, 10.73, 10.73, 10.73, 10.73, 10.73, 10.73, 11.18, 11.18, 11.18, 10.73, 10.73, 10.73, 10.73, 10.73, 10.73, 10.73, 10.28, 10.28, 10.28, 9.83, 9.39, 8.94, 8.94, 8.49, 8.49, 8.49, 8.94, 8.94, 9.39, 9.39, 8.94, 8.94, 8.94, 9.39, 9.83, 9.83, 9.39, 9.39, 8.94, 8.94, 8.94, 8.94, 8.94, 8.94, 9.39, 9.83, 9.83, 10.28, 10.28, 10.73, 10.73, 10.28, 10.28, 9.83, 9.39, 8.94, 8.49, 8.05, 8.05, 9.39, 11.62, 12.07, 11.62, 10.73, 10.28, 10.28, 10.28, 10.28, 10.28, 10.28, 10.28, 10.28, 10.28, 9.83, 9.39, 8.94, 8.94, 8.49, 8.49, 8.05, 8.05, 8.05, 7.6, 8.05, 8.05, 12.52, 12.07, 12.07, 11.62, 11.62, 11.18, 11.18, 11.18, 11.18, 11.18, 10.73, 10.73, 10.73, 11.18, 11.18, 11.18, 10.73, 10.73, 10.73, 11.18, 11.18, 11.18, 11.18, 10.73, 10.73, 10.73, 10.73, 10.73, 10.28, 10.28, 10.28, 9.83, 9.83, 9.39, 9.39, 8.94, 8.49, 8.05, 8.49, 8.49, 8.94, 8.94, 8.94, 8.94, 8.94, 8.94, 9.39, 9.83, 9.83, 9.83, 9.39, 9.39, 8.94, 8.94, 8.94, 8.94, 8.94, 9.39, 9.83, 10.28, 10.28, 10.73, 10.73, 10.73, 10.28, 10.28, 9.83, 9.39, 9.39, 8.49, 8.05, 8.05, 8.49, 11.18, 12.07, 11.62, 11.18, 10.28, 9.83, 9.83, 9.83, 9.83, 9.83, 10.28, 10.28, 10.28, 9.83, 9.39, 8.94, 8.94, 8.94, 8.49, 8.49, 8.05, 8.05, 8.05, 8.05, 8.05, 12.52, 12.52, 12.07, 11.62, 11.62, 11.62, 11.18, 11.18, 11.18, 11.18, 11.18, 11.18, 11.18, 11.18, 11.18, 11.18, 11.18, 11.18, 11.18, 11.18, 11.18, 11.18, 11.18, 10.73, 10.73, 10.73, 10.73, 10.28, 10.28, 10.28, 10.28, 9.83, 9.83, 9.39, 8.94, 8.94, 8.49, 8.05, 8.05, 8.49, 8.49, 8.94, 8.94, 8.94, 8.94, 9.39, 9.39, 9.83, 9.83, 9.83, 9.39, 9.39, 9.39, 9.39, 8.94, 8.94, 8.94, 9.39, 9.83, 10.28, 10.73, 10.73, 10.73, 10.73, 10.28, 10.28, 9.83, 9.39, 9.39, 8.94, 8.49, 8.49, 10.28, 11.62, 12.07, 12.07, 11.18, 10.73, 10.28, 9.83, 9.39, 9.39, 9.83, 10.28, 10.28, 10.28, 9.83, 9.39, 8.94, 8.94, 8.94, 8.94, 8.49, 8.49, 8.05, 8.05, 8.05, 8.05, 12.52, 12.52, 12.07, 12.07, 11.62, 11.62, 11.62, 11.18, 11.18, 11.18, 11.18, 11.18, 11.18, 11.18, 11.18, 11.18, 11.18, 11.18, 11.18, 11.18, 11.18, 11.18, 11.18, 11.18, 10.73, 10.28, 10.28, 10.28, 10.28, 10.28, 9.83, 9.83, 9.83, 9.39, 8.94, 8.49, 8.49, 8.05, 8.05, 8.05, 8.49, 8.49, 8.94, 8.94, 8.94, 9.39, 9.39, 9.83, 9.83, 9.83, 9.83, 9.39, 9.39, 9.39, 9.39, 9.39, 8.94, 8.94, 9.39, 10.28, 10.73, 11.18, 11.18, 10.73, 10.73, 10.28, 9.83, 9.83, 9.39, 8.94, 8.49, 8.49, 9.39, 11.18, 12.07, 12.07, 11.62, 10.73, 10.28, 9.39, 8.94, 8.94, 9.39, 9.83, 10.28, 10.28, 9.83, 9.39, 8.94, 8.94, 8.94, 8.94, 8.49, 8.49, 8.49, 8.05, 8.05, 8.05, 12.52, 12.52, 12.52, 12.07, 12.07, 11.62, 11.62, 11.62, 11.18, 11.18, 11.18, 11.18, 11.18, 11.18, 11.18, 11.18, 11.18, 11.18, 11.18, 11.18, 11.18, 11.18, 11.18, 10.73, 10.73, 10.28, 10.28, 10.28, 10.28, 9.83, 9.83, 9.83, 9.39, 9.39, 8.94, 8.49, 8.49, 8.05, 8.05, 8.05, 8.05, 8.49, 8.49, 8.94, 8.94, 9.39, 9.83, 9.83, 9.83, 9.83, 9.83, 9.39, 9.39, 9.39, 9.39, 9.39, 9.39, 8.94, 9.39, 9.83, 10.73, 11.62, 11.62, 11.18, 10.73, 10.28, 9.83, 9.83, 9.39, 8.49, 8.05, 8.05, 8.94, 10.73, 12.07, 12.52, 12.07, 11.18, 10.28, 9.39, 8.94, 8.94, 9.39, 9.83, 9.83, 9.83, 9.39, 9.39, 8.94, 8.94, 8.94, 8.94, 8.94, 8.49, 8.49, 8.49, 8.49, 8.49, 12.52, 12.52, 12.52, 12.07, 12.07, 12.07, 11.62, 11.62, 11.62, 11.62, 11.18, 11.18, 11.18, 11.18, 11.18, 11.18, 11.18, 11.18, 11.18, 11.18, 11.18, 11.18, 11.18, 10.73, 10.73, 10.28, 10.28, 9.83, 9.83, 9.83, 9.83, 9.83, 9.39, 9.39, 8.94, 8.49, 8.49, 8.05, 8.05, 8.05, 8.05, 8.05, 8.49, 8.49, 8.94, 9.39, 9.83, 10.28, 10.28, 9.83, 9.83, 9.83, 9.83, 9.83, 9.83, 9.83, 9.39, 9.39, 8.94, 9.83, 10.73, 11.62, 12.07, 11.18, 10.73, 9.83, 9.83, 9.83, 8.94, 8.49, 8.05, 8.05, 8.49, 10.28, 11.62, 12.52, 12.52, 11.18, 9.83, 9.39, 8.94, 8.94, 9.39, 9.83, 9.83, 9.39, 9.39, 8.94, 8.94, 8.94, 8.94, 8.94, 8.94, 8.94, 8.94, 8.94, 8.94, 8.94, 12.52, 12.52, 12.52, 12.52, 12.07, 12.07, 12.07, 11.62, 11.62, 11.62, 11.62, 11.62, 11.62, 11.62, 11.62, 11.62, 11.18, 11.18, 11.18, 11.18, 11.18, 11.18, 10.73, 10.73, 10.73, 10.28, 9.83, 9.83, 9.83, 9.83, 9.83, 9.39, 9.39, 8.94, 8.94, 8.49, 8.49, 8.49, 8.05, 8.05, 8.05, 8.05, 8.49, 8.49, 8.94, 9.39, 9.83, 10.28, 10.28, 9.83, 9.83, 9.83, 9.83, 9.83, 9.83, 9.83, 9.39, 9.39, 9.39, 9.39, 10.28, 11.62, 12.07, 11.62, 10.73, 9.83, 9.83, 9.39, 8.94, 8.49, 8.05, 8.05, 8.49, 9.83, 11.18, 12.96, 12.96, 11.62, 9.83, 9.39, 9.39, 9.39, 9.39, 9.39, 9.39, 8.94, 8.94, 8.94, 8.94, 8.94, 8.94, 8.94, 8.94, 8.94, 8.94, 8.94, 8.94, 8.94, 12.96, 12.96, 12.52, 12.52, 12.07, 12.07, 12.07, 12.07, 11.62, 11.62, 11.62, 11.62, 11.62, 11.62, 11.62, 11.62, 11.18, 11.18, 11.18, 11.18, 11.18, 10.73, 10.73, 10.73, 10.28, 10.28, 9.83, 9.39, 9.39, 9.39, 9.39, 9.39, 8.94, 8.94, 8.94, 8.49, 8.49, 8.49, 8.49, 8.49, 8.49, 8.49, 8.49, 8.49, 8.94, 9.39, 10.28, 10.28, 10.28, 10.28, 9.83, 9.83, 9.83, 9.83, 9.83, 9.83, 9.83, 9.39, 9.39, 9.39, 10.28, 11.18, 12.07, 11.62, 11.18, 10.28, 9.39, 9.39, 8.94, 8.49, 8.49, 8.05, 8.49, 9.39, 10.73, 12.52, 13.41, 12.07, 10.28, 9.39, 9.39, 9.39, 9.39, 8.94, 8.94, 8.49, 8.49, 8.94, 8.94, 8.94, 8.94, 8.94, 8.94, 8.94, 9.39, 9.39, 9.39, 9.39, 12.96, 12.96, 12.52, 12.52, 12.52, 12.07, 12.07, 12.07, 11.62, 11.62, 11.62, 11.62, 11.62, 11.62, 11.62, 11.62, 11.18, 11.18, 11.18, 11.18, 10.73, 10.73, 10.73, 10.28, 10.28, 9.83, 9.39, 9.39, 9.39, 9.39, 9.39, 8.94, 8.94, 8.94, 8.94, 8.94, 8.94, 8.49, 8.49, 8.49, 8.49, 8.49, 8.49, 8.49, 8.94, 9.39, 10.28, 10.73, 10.28, 10.28, 10.28, 10.28, 9.83, 9.83, 9.83, 9.83, 9.83, 9.83, 9.39, 9.39, 9.83, 10.73, 11.62, 11.62, 11.18, 9.83, 9.39, 9.39, 8.94, 8.94, 8.49, 8.05, 8.05, 8.94, 10.73, 12.07, 12.96, 12.07, 10.73, 9.83, 9.83, 9.83, 9.39, 8.94, 8.49, 8.49, 8.49, 8.49, 8.94, 8.94, 8.94, 8.94, 8.94, 9.39, 9.39, 9.39, 9.39, 9.39, 12.96, 12.96, 12.96, 12.52, 12.52, 12.07, 12.07, 12.07, 12.07, 11.62, 11.62, 11.62, 11.62, 11.62, 11.62, 11.62, 11.18, 11.18, 11.18, 11.18, 10.73, 10.73, 10.28, 9.83, 9.83, 9.39, 9.39, 8.94, 8.94, 8.94, 8.94, 8.94, 8.94, 8.94, 8.94, 8.94, 8.94, 8.94, 8.94, 8.94, 8.49, 8.49, 8.49, 8.49, 8.94, 9.39, 10.28, 10.73, 10.28, 10.28, 10.28, 10.28, 9.83, 9.83, 9.83, 9.83, 9.83, 9.83, 9.83, 9.83, 9.83, 10.73, 11.18, 11.62, 10.73, 10.28, 9.83, 9.39, 8.94, 8.94, 8.49, 8.05, 8.05, 8.94, 10.73, 12.07, 12.07, 11.62, 11.18, 10.73, 10.28, 9.83, 8.94, 8.49, 8.05, 8.05, 8.05, 8.49, 8.94, 8.94, 9.39, 8.94, 8.94, 9.39, 9.39, 9.39, 9.39, 9.39, 12.96, 12.96, 12.96, 12.52, 12.52, 12.07, 12.07, 12.07, 12.07, 12.07, 11.62, 11.62, 11.62, 11.62, 11.62, 11.18, 11.18, 11.18, 11.18, 10.73, 10.73, 10.28, 9.83, 9.39, 9.39, 9.39, 8.94, 8.94, 8.94, 8.94, 8.94, 8.94, 8.94, 8.94, 8.94, 8.94, 8.94, 8.94, 8.94, 8.94, 8.94, 8.94, 8.94, 8.94, 8.94, 9.39, 10.28, 10.73, 10.28, 10.28, 9.83, 9.83, 9.83, 9.83, 9.83, 9.83, 9.83, 9.83, 9.83, 9.83, 9.83, 10.28, 10.73, 11.18, 11.18, 10.28, 9.83, 9.39, 9.39, 9.39, 8.94, 8.05, 7.6, 8.49, 10.73, 12.07, 11.62, 11.18, 11.18, 11.18, 10.73, 9.83, 8.49, 8.05, 7.6, 8.05, 8.05, 8.49, 8.94, 9.39, 9.39, 9.39, 8.94, 8.94, 9.39, 9.39, 9.39, 9.39, 12.96, 12.96, 12.96, 12.52, 12.52, 12.52, 12.07, 12.07, 12.07, 12.07, 12.07, 11.62, 11.62, 11.62, 11.62, 11.18, 11.18, 11.18, 10.73, 10.28, 9.83, 9.83, 9.39, 9.39, 9.39, 8.94, 8.94, 8.94, 8.94, 8.94, 8.94, 8.94, 8.94, 8.94, 8.94, 8.94, 8.94, 8.94, 8.94, 8.94, 8.94, 8.94, 8.94, 8.94, 8.94, 9.39, 10.28, 10.73, 10.28, 10.28, 9.83, 9.83, 9.83, 9.83, 9.83, 9.83, 9.83, 9.83, 9.83, 9.83, 9.83, 10.28, 11.18, 11.18, 11.18, 10.73, 10.28, 9.83, 9.39, 9.39, 8.94, 8.05, 7.6, 8.05, 10.28, 12.07, 11.62, 11.18, 11.18, 11.18, 10.73, 9.83, 8.49, 7.6, 7.6, 8.05, 8.05, 8.49, 8.94, 9.39, 9.39, 9.39, 8.94, 8.94, 8.94, 8.94, 9.39, 9.39, 12.96, 12.96, 12.96, 12.52, 12.52, 12.52, 12.07, 12.07, 12.07, 12.07, 12.07, 11.62, 11.62, 11.62, 11.18, 11.18, 11.18, 10.73, 10.28, 9.83, 9.83, 9.39, 9.39, 8.94, 8.94, 8.94, 8.94, 8.94, 8.94, 8.94, 8.94, 8.94, 8.94, 8.94, 8.94, 8.94, 8.94, 8.94, 8.94, 8.94, 8.94, 8.94, 8.94, 8.94, 9.39, 9.39, 9.83, 10.28, 10.28, 9.83, 9.39, 9.39, 9.39, 9.83, 9.83, 9.83, 9.83, 9.83, 9.83, 9.83, 9.83, 10.28, 10.73, 11.18, 11.18, 10.73, 10.28, 9.83, 9.39, 9.39, 9.39, 8.49, 7.6, 8.05, 9.83, 11.62, 11.62, 10.73, 10.73, 11.18, 10.73, 9.83, 8.49, 7.6, 7.6, 8.05, 8.49, 8.49, 8.94, 9.39, 9.39, 9.39, 8.94, 8.94, 8.49, 8.94, 8.94, 8.94, 12.96, 12.96, 12.96, 12.52, 12.52, 12.52, 12.52, 12.07, 12.07, 12.07, 12.07, 11.62, 11.62, 11.62, 11.18, 11.18, 10.73, 10.28, 9.83, 9.83, 9.39, 9.39, 8.94, 8.94, 8.94, 8.94, 8.94, 8.49, 8.94, 8.94, 8.94, 8.94, 8.94, 8.94, 8.94, 8.94, 8.94, 8.94, 8.94, 8.94, 8.94, 8.94, 8.94, 8.94, 9.39, 9.39, 9.83, 10.28, 10.28, 9.83, 9.39, 9.39, 9.39, 9.83, 9.83, 9.83, 9.83, 9.83, 9.83, 9.83, 9.83, 10.28, 10.73, 11.18, 11.18, 11.18, 10.73, 10.28, 9.83, 9.39, 8.94, 8.49, 7.6, 7.6, 9.39, 11.18, 11.62, 11.18, 10.73, 10.73, 10.73, 9.39, 8.49, 8.05, 8.05, 8.49, 8.49, 8.49, 8.94, 8.94, 9.39, 9.39, 8.94, 8.94, 8.49, 8.94, 8.94, 8.94, 12.96, 12.96, 12.96, 12.52, 12.52, 12.52, 12.52, 12.07, 12.07, 12.07, 12.07, 11.62, 11.62, 11.62, 11.18, 10.73, 10.28, 9.83, 9.83, 9.39, 9.39, 8.94, 8.94, 8.94, 8.94, 8.94, 8.49, 8.49, 8.49, 8.94, 8.94, 8.94, 8.94, 8.94, 8.94, 8.94, 8.94, 8.94, 8.94, 8.94, 8.94, 8.94, 8.94, 8.94, 9.39, 9.39, 9.83, 9.83, 9.83, 9.39, 9.39, 9.39, 9.39, 9.83, 9.83, 9.83, 9.83, 9.83, 9.83, 9.83, 9.83, 10.28, 10.73, 11.18, 11.18, 11.18, 10.73, 10.73, 10.28, 9.83, 8.94, 8.05, 7.6, 7.15, 8.94, 11.18, 11.62, 11.18, 10.73, 10.28, 9.83, 8.94, 8.49, 8.49, 8.49, 8.49, 8.94, 8.94, 8.94, 8.94, 8.94, 8.94, 8.94, 8.94, 8.49, 8.49, 8.94, 8.94, 12.96, 12.96, 12.96, 12.52, 12.52, 12.52, 12.52, 12.07, 12.07, 12.07, 11.62, 11.62, 11.62, 11.18, 11.18, 10.73, 10.28, 9.83, 9.39, 9.39, 8.94, 8.94, 8.94, 8.94, 8.94, 8.94, 8.94, 8.49, 8.49, 8.94, 8.94, 8.94, 8.94, 8.94, 8.94, 8.94, 8.94, 8.94, 8.94, 9.39, 9.39, 8.94, 8.94, 8.94, 8.94, 9.39, 9.39, 9.39, 9.39, 9.39, 9.39, 9.39, 9.39, 9.83, 9.83, 9.83, 9.83, 9.83, 9.83, 9.83, 9.83, 10.28, 10.73, 10.73, 11.18, 11.18, 11.18, 10.73, 10.28, 9.83, 8.94, 8.05, 7.15, 7.15, 8.49, 10.73, 11.62, 11.62, 11.18, 10.28, 9.39, 8.49, 8.49, 8.49, 8.94, 8.94, 8.94, 8.94, 8.94, 8.94, 8.94, 8.94, 8.94, 8.49, 8.49, 8.94, 8.94, 8.94, 12.96, 12.96, 12.96, 12.96, 12.52, 12.52, 12.52, 12.07, 12.07, 12.07, 11.62, 11.62, 11.18, 11.18, 10.73, 10.28, 9.83, 9.39, 9.39, 8.94, 8.94, 8.94, 8.94, 8.94, 8.94, 8.94, 8.94, 8.94, 8.94, 8.94, 8.94, 8.94, 8.94, 8.94, 8.94, 8.94, 8.94, 8.94, 9.39, 9.39, 8.94, 8.94, 8.94, 8.94, 8.94, 8.94, 9.39, 8.94, 8.94, 8.94, 9.39, 9.39, 9.39, 9.83, 9.83, 9.83, 9.83, 9.83, 9.83, 9.83, 9.83, 10.28, 10.73, 10.73, 11.18, 11.18, 11.18, 10.73, 10.28, 9.83, 8.94, 8.05, 7.15, 6.71, 8.05, 10.28, 11.18, 11.62, 11.62, 10.28, 8.94, 8.49, 8.05, 8.49, 8.94, 8.94, 9.39, 8.94, 8.94, 8.94, 8.49, 8.49, 8.49, 8.49, 8.49, 8.94, 8.94, 8.94, 12.96, 12.96, 12.96, 12.96, 12.52, 12.52, 12.52, 12.07, 12.07, 12.07, 11.62, 11.18, 11.18, 10.73, 10.73, 10.28, 9.83, 9.39, 8.94, 8.94, 8.94, 8.94, 8.94, 8.94, 8.94, 8.94, 8.94, 8.94, 8.94, 8.94, 8.94, 8.94, 8.94, 8.94, 8.94, 8.94, 9.39, 9.39, 8.94, 8.94, 8.94, 8.49, 8.49, 8.49, 8.94, 8.94, 8.94, 8.94, 8.94, 8.94, 9.39, 9.39, 9.39, 9.39, 9.83, 9.83, 9.83, 9.83, 9.83, 9.83, 9.83, 10.28, 10.73, 10.73, 11.18, 11.18, 11.18, 10.73, 10.28, 9.83, 9.39, 8.05, 7.15, 6.26, 7.15, 9.39, 10.73, 11.18, 11.18, 10.28, 9.39, 8.05, 8.05, 8.49, 8.94, 8.94, 9.39, 8.94, 8.94, 8.49, 8.49, 8.49, 8.49, 8.49, 8.94, 8.94, 8.94, 8.94, 12.96, 12.96, 12.96, 12.96, 12.52, 12.52, 12.52, 12.07, 12.07, 11.62, 11.18, 11.18, 10.73, 10.73, 10.28, 10.28, 9.83, 9.39, 8.94, 8.94, 8.94, 8.94, 8.94, 8.94, 8.94, 8.94, 8.94, 8.94, 8.94, 8.94, 8.94, 8.94, 8.94, 8.94, 9.39, 9.39, 9.39, 8.94, 8.94, 8.94, 8.49, 8.49, 8.05, 8.05, 8.49, 8.94, 8.94, 8.94, 8.49, 8.94, 9.39, 9.39, 9.39, 9.83, 9.83, 9.83, 9.83, 9.83, 9.83, 9.83, 9.83, 10.28, 10.73, 10.73, 11.18, 11.18, 11.18, 10.73, 10.28, 9.83, 9.39, 8.49, 7.15, 6.26, 6.71, 8.49, 10.73, 11.18, 11.18, 10.28, 9.39, 8.49, 8.49, 8.49, 8.94, 8.94, 8.94, 8.94, 8.94, 8.49, 8.49, 8.49, 8.49, 8.49, 8.94, 8.94, 8.94, 8.94, 12.96, 12.96, 12.96, 12.96, 12.52, 12.52, 12.52, 12.07, 12.07, 11.62, 11.18, 11.18, 10.73, 10.28, 10.28, 9.83, 9.83, 9.39, 8.94, 8.94, 8.94, 8.94, 8.94, 8.94, 8.94, 9.39, 9.39, 8.94, 8.94, 8.94, 8.94, 8.94, 8.94, 9.39, 9.39, 9.39, 8.94, 8.94, 8.49, 8.49, 8.49, 8.05, 8.05, 8.05, 8.49, 8.94, 8.94, 8.49, 8.49, 8.94, 8.94, 9.39, 9.39, 9.83, 9.83, 9.83, 9.83, 10.28, 9.83, 9.83, 9.83, 10.28, 10.28, 10.73, 11.18, 11.18, 10.73, 10.73, 10.28, 9.83, 9.39, 8.49, 7.6, 6.26, 6.26, 7.15, 9.83, 11.62, 11.18, 10.28, 9.39, 8.94, 8.94, 8.94, 8.94, 8.94, 8.94, 8.94, 8.49, 8.49, 8.05, 8.49, 8.49, 8.94, 8.94, 8.94, 8.94, 8.94, 12.96, 12.96, 12.96, 12.96, 12.52, 12.52, 12.07, 12.07, 11.62, 11.18, 11.18, 10.73, 10.73, 10.28, 10.28, 9.83, 9.83, 9.39, 9.39, 8.94, 8.94, 8.94, 8.94, 9.39, 9.39, 9.39, 9.39, 9.39, 8.94, 8.94, 8.94, 9.39, 9.39, 9.39, 9.39, 9.39, 8.94, 8.49, 8.49, 8.49, 8.05, 8.05, 8.05, 8.05, 8.49, 8.94, 8.94, 8.94, 8.49, 8.94, 8.94, 9.39, 9.39, 9.83, 9.83, 9.83, 10.28, 10.28, 10.28, 9.83, 10.28, 10.28, 10.28, 10.73, 10.73, 10.73, 10.73, 10.73, 10.28, 9.83, 9.39, 8.49, 7.6, 6.71, 6.26, 6.71, 8.49, 10.73, 11.18, 9.83, 9.39, 8.94, 9.39, 9.39, 9.39, 8.94, 8.94, 8.49, 8.49, 8.05, 8.05, 8.49, 8.49, 8.94, 8.94, 9.39, 9.39, 9.39, 12.96, 12.96, 12.96, 12.96, 12.52, 12.52, 12.07, 11.62, 11.62, 11.18, 11.18, 10.73, 10.73, 10.28, 9.83, 9.83, 9.39, 9.39, 9.39, 8.94, 8.94, 9.39, 9.39, 9.39, 9.83, 9.83, 9.39, 9.39, 9.39, 9.39, 9.39, 9.83, 9.83, 9.83, 9.39, 8.94, 8.49, 8.49, 8.49, 8.05, 8.05, 8.05, 8.05, 8.05, 8.49, 8.94, 8.94, 8.94, 8.94, 8.94, 8.94, 9.39, 9.39, 9.39, 9.83, 9.83, 10.28, 10.28, 10.28, 10.28, 10.28, 10.28, 10.28, 10.73, 10.73, 10.73, 10.73, 10.28, 10.28, 9.83, 9.39, 8.94, 8.05, 7.15, 6.71, 6.26, 7.6, 9.83, 10.73, 10.28, 9.39, 9.39, 9.39, 9.83, 9.39, 9.39, 8.94, 8.49, 8.49, 8.05, 8.05, 8.49, 8.49, 8.94, 8.94, 9.39, 9.39, 9.39, 12.96, 12.96, 12.96, 12.96, 12.52, 12.52, 12.07, 11.62, 11.62, 11.18, 10.73, 10.73, 10.28, 10.28, 9.83, 9.83, 9.83, 9.39, 9.39, 9.39, 9.39, 9.39, 9.83, 9.83, 9.83, 9.83, 9.83, 9.83, 9.83, 9.83, 9.83, 9.83, 9.83, 9.39, 9.39, 8.94, 8.49, 8.49, 8.49, 8.05, 8.05, 8.05, 8.05, 8.05, 8.49, 8.49, 8.94, 8.94, 8.94, 8.94, 8.94, 8.94, 9.39, 9.39, 9.83, 9.83, 10.28, 10.28, 10.28, 10.28, 10.28, 10.28, 10.28, 10.73, 10.73, 10.73, 10.28, 10.28, 9.83, 9.83, 9.39, 8.94, 8.05, 7.6, 7.15, 6.71, 7.15, 8.49, 10.28, 10.28, 9.83, 9.39, 9.83, 9.83, 9.83, 9.39, 8.94, 8.49, 8.49, 8.05, 8.05, 8.49, 8.49, 8.49, 8.94, 8.94, 8.94, 8.94, 12.96, 12.96, 12.96, 12.52, 12.52, 12.07, 11.62, 11.62, 11.18, 11.18, 10.73, 10.73, 10.28, 10.28, 9.83, 9.83, 9.83, 9.39, 9.39, 9.39, 9.39, 9.83, 9.83, 10.28, 10.28, 10.28, 10.28, 10.28, 10.28, 10.28, 10.28, 10.28, 9.83, 9.39, 8.94, 8.94, 8.49, 8.49, 8.49, 8.49, 8.49, 8.49, 8.49, 8.49, 8.49, 8.49, 8.94, 8.94, 8.94, 8.94, 8.94, 8.94, 9.39, 9.39, 9.83, 9.83, 10.28, 10.28, 10.28, 10.28, 10.28, 10.28, 10.28, 10.28, 10.28, 10.28, 10.28, 9.83, 9.83, 9.39, 9.39, 8.94, 8.49, 8.05, 7.6, 7.15, 6.71, 7.6, 8.94, 9.83, 10.28, 10.28, 10.28, 9.83, 9.83, 9.39, 9.39, 8.94, 8.49, 8.49, 8.49, 8.49, 8.49, 8.49, 8.49, 8.94, 8.94, 8.94, 12.96, 12.96, 12.96, 12.52, 12.07, 12.07, 11.62, 11.62, 11.18, 11.18, 10.73, 10.73, 10.28, 10.28, 10.28, 9.83, 9.83, 9.83, 9.39, 9.39, 9.83, 10.28, 10.28, 10.28, 10.28, 10.28, 10.28, 10.28, 10.73, 10.73, 10.28, 9.83, 9.39, 9.39, 8.94, 8.49, 8.49, 8.49, 8.49, 8.49, 8.49, 8.49, 8.49, 8.49, 8.49, 8.49, 8.94, 8.94, 8.94, 8.94, 8.94, 8.94, 9.39, 9.39, 9.83, 10.28, 10.28, 10.28, 10.28, 10.28, 10.28, 10.28, 10.28, 10.28, 10.28, 10.28, 10.28, 9.83, 9.83, 9.39, 9.39, 8.94, 8.49, 8.05, 7.6, 7.15, 7.15, 7.15, 8.05, 8.94, 9.83, 10.73, 11.18, 10.28, 9.83, 9.39, 9.39, 8.94, 8.94, 8.49, 8.49, 8.49, 8.49, 8.49, 8.49, 8.94, 8.94, 8.94, 12.96, 12.96, 12.52, 12.52, 12.07, 12.07, 11.62, 11.62, 11.62, 11.18, 11.18, 10.73, 10.73, 10.28, 10.28, 9.83, 9.83, 9.83, 9.83, 9.83, 9.83, 10.28, 10.73, 10.73, 10.73, 10.73, 10.73, 10.73, 10.73, 10.73, 10.28, 9.83, 9.39, 8.94, 8.94, 8.49, 8.49, 8.49, 8.49, 8.49, 8.49, 8.49, 8.49, 8.49, 8.49, 8.94, 8.94, 8.94, 8.94, 8.94, 8.94, 9.39, 9.39, 9.39, 9.83, 10.28, 10.28, 10.28, 10.28, 10.28, 10.28, 10.28, 10.28, 10.28, 10.28, 9.83, 9.83, 9.83, 9.83, 9.39, 9.39, 8.94, 8.49, 8.49, 8.05, 7.6, 7.15, 6.71, 7.15, 8.05, 9.39, 10.73, 11.62, 11.18, 9.83, 9.39, 9.39, 8.94, 8.94, 8.49, 8.49, 8.49, 8.49, 8.49, 8.49, 8.94, 8.94, 8.94, 12.96, 12.96, 12.52, 12.52, 12.07, 12.07, 12.07, 11.62, 11.62, 11.18, 11.18, 10.73, 10.73, 10.28, 10.28, 10.28, 9.83, 9.83, 9.83, 9.83, 10.28, 10.73, 10.73, 10.73, 10.73, 10.73, 11.18, 11.18, 10.73, 10.28, 9.83, 9.39, 9.39, 8.94, 8.94, 8.94, 8.94, 8.94, 8.94, 8.94, 8.94, 8.94, 8.94, 8.94, 8.94, 8.94, 8.94, 8.94, 9.39, 9.39, 9.39, 9.39, 9.39, 9.83, 10.28, 10.28, 10.28, 10.28, 10.28, 10.28, 10.28, 10.28, 9.83, 9.83, 9.83, 9.83, 9.83, 9.83, 9.39, 9.39, 9.39, 8.94, 8.49, 8.49, 8.05, 7.6, 7.15, 7.15, 7.15, 7.6, 8.49, 10.28, 11.62, 11.62, 10.73, 9.39, 9.39, 8.94, 8.49, 8.49, 8.49, 8.49, 8.49, 8.49, 8.49, 8.49, 8.49, 8.49, 12.96, 12.96, 12.52, 12.52, 12.07, 12.07, 12.07, 11.62, 11.62, 11.62, 11.18, 10.73, 10.73, 10.73, 10.28, 10.28, 10.28, 10.28, 10.28, 10.28, 10.73, 11.18, 11.18, 11.18, 11.18, 11.18, 11.18, 11.18, 10.73, 10.28, 9.83, 9.39, 8.94, 8.94, 8.94, 8.94, 8.94, 8.94, 8.94, 8.94, 8.94, 8.94, 8.94, 8.94, 8.94, 8.94, 9.39, 9.39, 9.39, 9.39, 9.39, 9.39, 9.39, 9.83, 10.28, 10.28, 10.28, 10.28, 10.28, 10.28, 10.28, 9.83, 9.83, 9.83, 9.83, 9.83, 9.83, 9.39, 9.39, 9.39, 8.94, 8.94, 8.49, 8.49, 8.05, 7.6, 7.15, 7.15, 7.15, 7.6, 8.49, 9.83, 11.18, 12.07, 11.18, 9.39, 9.39, 8.94, 8.94, 8.49, 8.05, 8.05, 8.05, 8.05, 8.49, 8.49, 8.49, 8.49, 12.96, 12.96, 12.52, 12.52, 12.52, 12.07, 12.07, 12.07, 11.62, 11.62, 11.18, 11.18, 10.73, 10.73, 10.28, 10.28, 10.28, 10.28, 10.28, 10.73, 11.18, 11.18, 11.62, 11.62, 11.62, 11.18, 11.18, 11.18, 10.73, 9.83, 9.39, 9.39, 8.94, 8.94, 9.39, 9.39, 9.39, 9.39, 9.39, 9.39, 9.39, 9.39, 9.39, 9.39, 9.39, 9.39, 9.39, 9.39, 9.83, 9.83, 9.83, 9.39, 9.39, 9.83, 9.83, 10.28, 10.28, 10.28, 10.28, 10.28, 10.28, 9.83, 9.83, 9.83, 9.39, 9.39, 9.39, 9.39, 8.94, 8.94, 8.94, 8.94, 8.49, 8.49, 8.05, 7.6, 7.6, 7.6, 7.6, 8.05, 8.49, 9.39, 10.73, 11.62, 10.28, 9.83, 9.39, 9.39, 8.94, 8.49, 8.05, 8.05, 8.05, 8.05, 8.05, 8.49, 8.49, 8.49, 12.96, 12.96, 12.96, 12.52, 12.52, 12.52, 12.07, 12.07, 11.62, 11.62, 11.18, 11.18, 10.73, 10.73, 10.73, 10.73, 10.28, 10.73, 10.73, 11.18, 11.18, 11.62, 11.62, 11.62, 11.62, 11.62, 11.18, 10.73, 10.28, 9.83, 9.39, 9.39, 9.39, 9.39, 9.39, 9.83, 9.83, 9.83, 9.83, 9.83, 9.83, 9.83, 9.83, 9.83, 9.83, 9.83, 9.83, 9.83, 9.83, 9.83, 9.83, 9.39, 9.39, 9.83, 9.83, 10.28, 10.28, 10.28, 10.28, 10.28, 9.83, 9.83, 9.39, 9.39, 9.39, 8.94, 8.94, 8.94, 8.94, 8.94, 8.94, 8.94, 8.49, 8.49, 8.05, 7.6, 7.6, 7.6, 8.05, 8.49, 8.94, 9.39, 10.28, 11.18, 10.28, 9.83, 9.39, 9.39, 8.94, 8.49, 8.49, 8.05, 7.6, 7.6, 8.05, 8.05, 8.05, 8.05, 12.96, 12.96, 12.96, 12.96, 12.52, 12.52, 12.52, 12.07, 12.07, 11.62, 11.62, 11.18, 11.18, 10.73, 10.73, 10.73, 10.73, 10.73, 11.18, 11.62, 11.62, 12.07, 12.07, 11.62, 11.62, 11.18, 10.73, 10.28, 9.83, 9.83, 9.39, 9.39, 9.83, 9.83, 9.83, 10.28, 10.28, 10.28, 10.28, 10.28, 10.28, 10.28, 10.28, 9.83, 9.83, 9.83, 9.83, 9.83, 9.83, 9.39, 9.39, 9.39, 9.39, 9.83, 9.83, 9.83, 10.28, 10.28, 9.83, 9.83, 9.83, 9.39, 9.39, 8.94, 8.94, 8.94, 8.94, 8.94, 8.94, 8.94, 8.94, 8.94, 8.49, 8.05, 8.05, 7.6, 8.05, 8.05, 8.49, 8.49, 8.94, 8.94, 10.73, 11.18, 10.28, 9.39, 9.39, 9.39, 8.94, 8.94, 8.49, 8.05, 7.6, 7.6, 7.6, 7.6, 7.6, 7.6, 13.41, 13.41, 12.96, 12.96, 12.96, 12.52, 12.52, 12.07, 12.07, 11.62, 11.62, 11.62, 11.18, 11.18, 11.18, 10.73, 11.18, 11.18, 11.62, 11.62, 12.07, 12.07, 12.07, 12.07, 11.62, 11.18, 10.73, 10.28, 9.83, 9.83, 9.83, 9.83, 10.28, 10.28, 10.28, 10.73, 10.73, 10.73, 10.73, 10.73, 10.73, 10.28, 10.28, 10.28, 9.83, 9.83, 9.83, 9.39, 9.39, 9.39, 9.39, 9.39, 9.39, 9.83, 9.83, 9.83, 9.83, 9.83, 9.83, 9.83, 9.39, 9.39, 8.94, 8.94, 8.49, 8.49, 8.49, 8.49, 8.49, 8.94, 8.94, 8.49, 8.49, 8.05, 8.05, 8.05, 8.05, 8.05, 8.49, 8.94, 8.94, 8.94, 10.28, 11.18, 10.28, 9.39, 8.94, 8.94, 8.94, 8.94, 8.94, 8.49, 8.05, 7.6, 7.6, 7.6, 7.6, 7.6, 13.41, 13.41, 13.41, 12.96, 12.96, 12.96, 12.52, 12.52, 12.07, 12.07, 11.62, 11.62, 11.62, 11.18, 11.18, 11.18, 11.18, 11.62, 11.62, 12.07, 12.52, 12.52, 12.52, 11.62, 11.18, 10.73, 10.28, 9.83, 9.83, 9.83, 10.28, 10.28, 10.73, 10.73, 10.73, 10.73, 11.18, 11.18, 10.73, 10.73, 10.73, 10.73, 10.28, 10.28, 9.83, 9.83, 9.39, 9.39, 9.39, 9.39, 9.39, 9.39, 9.39, 9.39, 9.83, 9.83, 9.83, 9.83, 9.83, 9.39, 9.39, 8.94, 8.94, 8.49, 8.49, 8.49, 8.49, 8.49, 8.49, 8.49, 8.49, 8.49, 8.49, 8.05, 8.05, 8.05, 8.05, 8.49, 8.49, 8.94, 8.94, 9.39, 10.28, 10.73, 10.28, 9.39, 8.94, 8.94, 8.94, 8.94, 8.94, 8.49, 8.05, 7.6, 7.6, 7.6, 7.6, 7.6, 13.41, 13.41, 13.41, 13.41, 13.41, 12.96, 12.96, 12.52, 12.52, 12.07, 12.07, 11.62, 11.62, 11.62, 11.62, 11.62, 11.62, 12.07, 12.07, 12.52, 12.52, 12.52, 12.07, 11.62, 11.18, 10.73, 10.28, 10.28, 10.28, 10.28, 10.73, 10.73, 10.73, 11.18, 11.18, 11.18, 11.18, 11.18, 11.18, 10.73, 10.73, 10.73, 10.28, 10.28, 9.83, 9.39, 9.39, 9.39, 9.39, 9.39, 9.39, 9.39, 9.39, 9.39, 9.39, 9.39, 9.83, 9.39, 9.39, 9.39, 8.94, 8.94, 8.49, 8.49, 8.49, 8.05, 8.49, 8.49, 8.49, 8.49, 8.49, 8.49, 8.05, 8.05, 8.05, 8.05, 8.05, 8.49, 8.49, 8.94, 8.94, 8.94, 9.83, 10.73, 10.28, 9.39, 8.94, 8.94, 8.94, 8.94, 8.49, 8.49, 8.05, 8.05, 7.6, 7.15, 7.15, 7.15, 13.86, 13.86, 13.86, 13.41, 13.41, 12.96, 12.96, 12.52, 12.52, 12.52, 12.07, 12.07, 12.07, 12.07, 11.62, 11.62, 12.07, 12.07, 12.52, 12.52, 12.52, 12.52, 12.07, 11.18, 10.73, 10.28, 10.28, 10.28, 10.73, 10.73, 11.18, 11.18, 11.18, 11.18, 11.18, 11.18, 11.18, 11.18, 11.18, 10.73, 10.73, 10.28, 10.28, 9.83, 9.39, 9.39, 8.94, 8.94, 8.94, 8.94, 9.39, 9.39, 9.39, 9.39, 9.39, 9.39, 9.39, 9.39, 9.39, 8.94, 8.94, 8.94, 8.49, 8.49, 8.49, 8.05, 8.05, 8.49, 8.49, 8.49, 8.49, 8.49, 8.05, 8.05, 8.05, 8.05, 8.05, 8.49, 8.49, 8.94, 8.94, 8.94, 9.39, 10.28, 10.28, 9.39, 8.94, 8.94, 8.94, 8.94, 8.49, 8.49, 8.05, 8.05, 7.6, 7.15, 7.15, 7.15, 13.86, 13.86, 13.86, 13.86, 13.41, 13.41, 12.96, 12.96, 12.96, 12.52, 12.52, 12.52, 12.52, 12.07, 12.07, 12.07, 12.52, 12.52, 12.52, 12.52, 12.52, 12.07, 11.62, 11.18, 10.73, 10.28, 10.73, 10.73, 11.18, 11.18, 11.62, 11.62, 11.62, 11.62, 11.62, 11.62, 11.18, 11.18, 11.18, 10.73, 10.28, 10.28, 9.83, 9.39, 9.39, 8.94, 8.94, 8.94, 8.94, 8.94, 9.39, 9.39, 9.39, 9.39, 9.39, 9.39, 9.39, 9.39, 8.94, 8.94, 8.94, 8.49, 8.49, 8.49, 8.05, 8.05, 8.05, 8.05, 8.49, 8.49, 8.49, 8.05, 8.05, 7.6, 8.05, 8.05, 8.05, 8.49, 8.49, 8.49, 8.94, 8.94, 9.39, 9.83, 10.28, 9.39, 8.94, 9.39, 8.94, 8.94, 8.49, 8.49, 8.05, 8.05, 8.05, 7.15, 7.15, 7.15, 14.3, 14.3, 14.3, 13.86, 13.86, 13.41, 13.41, 13.41, 12.96, 12.96, 12.96, 12.96, 12.52, 12.52, 12.52, 12.52, 12.52, 12.52, 12.52, 12.52, 12.07, 11.62, 11.18, 11.18, 10.73, 10.73, 11.18, 11.18, 11.62, 11.62, 11.62, 11.62, 11.62, 11.62, 11.62, 11.62, 11.18, 11.18, 10.73, 10.73, 10.28, 9.83, 9.39, 9.39, 8.94, 8.94, 8.94, 8.94, 8.94, 8.94, 8.94, 8.94, 8.94, 8.94, 8.94, 8.94, 8.94, 8.94, 8.94, 8.94, 8.49, 8.49, 8.49, 8.49, 8.05, 8.05, 8.05, 8.05, 8.05, 8.05, 8.05, 8.05, 8.05, 7.6, 7.6, 8.05, 8.05, 8.49, 8.49, 8.49, 8.49, 8.94, 9.39, 9.83, 9.83, 9.39, 9.39, 9.39, 8.94, 8.94, 8.49, 8.49, 8.05, 8.05, 7.6, 7.15, 7.15, 7.15, 14.3, 14.3, 14.3, 14.3, 14.3, 13.86, 13.86, 13.86, 13.41, 13.41, 13.41, 12.96, 12.96, 12.96, 12.52, 12.52, 12.52, 12.52, 12.52, 12.07, 12.07, 11.62, 11.18, 11.18, 11.18, 11.18, 11.62, 11.62, 12.07, 12.07, 12.07, 12.07, 11.62, 11.62, 11.62, 11.62, 11.18, 11.18, 10.73, 10.28, 9.83, 9.83, 9.39, 9.39, 8.94, 8.94, 8.94, 8.94, 8.94, 8.94, 8.94, 8.94, 8.94, 8.94, 8.94, 8.94, 8.94, 8.94, 8.94, 8.94, 8.49, 8.49, 8.49, 8.49, 8.05, 8.05, 8.05, 8.05, 8.05, 8.05, 8.05, 7.6, 7.6, 7.6, 8.05, 8.05, 8.05, 8.49, 8.49, 8.49, 8.94, 8.94, 9.39, 9.83, 9.83, 9.83, 9.39, 8.94, 8.94, 8.94, 8.49, 8.05, 8.05, 7.6, 7.6, 7.15, 7.15, 7.15, 14.3, 14.3, 14.3, 14.3, 14.3, 13.86, 13.86, 13.86, 13.41, 13.41, 13.41, 12.96, 12.96, 12.96, 12.52, 12.52, 12.52, 12.52, 12.52, 12.07, 12.07, 11.62, 11.18, 11.18, 11.18, 11.18, 11.62, 11.62, 12.07, 12.07, 12.07, 12.07, 11.62, 11.62, 11.62, 11.62, 11.18, 11.18, 10.73, 10.28, 9.83, 9.83, 9.39, 9.39, 8.94, 8.94, 8.94, 8.94, 8.94, 8.94, 8.94, 8.94, 8.94, 8.94, 8.94, 8.94, 8.94, 8.94, 8.94, 8.94, 8.49, 8.49, 8.49, 8.49, 8.05, 8.05, 8.05, 8.05, 8.05, 8.05, 8.05, 7.6, 7.6, 7.6, 8.05, 8.05, 8.05, 8.49, 8.49, 8.49, 8.94, 8.94, 9.39, 9.83, 9.83, 9.83, 9.39, 9.39, 8.94, 8.94, 8.49, 8.05, 7.6, 7.15, 7.15, 6.71, 6.71, 6.71]}, {"header": {"parameterCategory": 1, "parameterNumber": 3, "dx": 0.06612293990616946, "dy": 0.0552356325346848, "nx": 98, "ny": 59, "la1": 35.046912555036876, "la2": 31.78801023549047, "lo1": -121.43107172385933, "lo2": -114.95102361305473, "refTime": "2026041001"}, "data": [12.52, 12.52, 12.52, 12.07, 12.07, 12.07, 11.62, 11.62, 11.62, 11.18, 11.18, 10.73, 10.73, 10.73, 10.28, 10.28, 9.83, 9.83, 9.83, 9.39, 9.39, 9.39, 9.39, 9.39, 9.39, 9.39, 9.39, 9.39, 9.39, 9.39, 9.39, 9.39, 8.94, 8.94, 8.94, 8.49, 8.49, 8.49, 8.05, 8.05, 8.05, 8.05, 8.05, 8.05, 8.05, 7.6, 8.05, 8.05, 8.05, 8.05, 8.05, 8.05, 8.05, 8.05, 8.05, 8.05, 8.05, 8.05, 8.05, 8.05, 7.6, 7.6, 7.6, 8.05, 8.05, 8.05, 8.05, 8.05, 7.6, 7.15, 7.15, 7.15, 7.15, 7.15, 7.6, 7.6, 7.6, 7.6, 7.6, 7.6, 7.6, 7.6, 7.6, 7.6, 7.6, 7.6, 7.15, 7.15, 7.15, 7.6, 7.6, 7.6, 7.6, 7.6, 7.6, 7.6, 8.05, 8.05, 12.52, 12.52, 12.07, 12.07, 12.07, 12.07, 11.62, 11.62, 11.18, 11.18, 11.18, 10.73, 10.73, 10.28, 10.28, 9.83, 9.83, 9.83, 9.39, 9.39, 9.39, 9.39, 8.94, 9.39, 9.39, 9.39, 9.39, 9.39, 9.39, 9.39, 9.39, 9.39, 8.94, 8.94, 8.94, 8.94, 8.94, 8.49, 8.49, 8.05, 8.05, 8.05, 8.05, 8.05, 8.05, 7.6, 8.05, 8.05, 8.05, 8.05, 8.05, 8.05, 8.05, 8.05, 8.05, 8.05, 8.05, 8.05, 8.05, 8.05, 7.6, 7.6, 7.6, 8.05, 8.05, 8.49, 8.05, 8.05, 7.6, 7.15, 7.15, 7.15, 7.15, 7.15, 7.6, 7.15, 7.15, 7.6, 7.6, 7.6, 7.6, 7.6, 7.6, 7.6, 7.6, 7.6, 7.15, 7.15, 7.15, 7.6, 7.6, 7.6, 7.6, 7.6, 7.6, 7.6, 8.05, 8.05, 12.52, 12.52, 12.07, 12.07, 12.07, 11.62, 11.62, 11.62, 11.18, 11.18, 10.73, 10.73, 10.28, 10.28, 10.28, 9.83, 9.83, 9.83, 9.39, 9.39, 9.39, 9.39, 8.94, 8.94, 8.94, 9.39, 9.39, 9.39, 9.39, 9.83, 9.39, 9.39, 9.39, 8.94, 8.94, 8.94, 8.94, 8.94, 8.49, 8.49, 8.49, 8.05, 8.05, 8.05, 8.05, 8.05, 8.05, 8.05, 8.05, 8.05, 8.05, 8.05, 8.05, 8.05, 8.05, 8.05, 8.05, 8.05, 8.05, 8.05, 7.6, 7.6, 7.6, 8.05, 8.05, 8.49, 8.05, 7.6, 7.6, 7.15, 7.15, 7.15, 7.15, 7.6, 7.6, 7.6, 7.15, 7.15, 7.15, 7.15, 7.15, 7.15, 7.15, 7.15, 7.15, 7.15, 7.15, 7.15, 7.15, 7.15, 7.15, 7.6, 7.6, 7.6, 7.6, 8.05, 8.05, 8.05, 12.52, 12.07, 12.07, 12.07, 12.07, 11.62, 11.62, 11.18, 11.18, 10.73, 10.73, 10.28, 10.28, 10.28, 9.83, 9.83, 9.83, 9.83, 9.39, 9.39, 9.39, 9.39, 9.39, 8.94, 8.94, 8.94, 9.39, 9.39, 9.83, 9.83, 9.83, 9.83, 9.39, 9.39, 9.39, 9.39, 9.39, 9.39, 8.94, 8.49, 8.49, 8.49, 8.05, 8.05, 7.6, 7.6, 8.05, 8.05, 8.05, 8.05, 8.05, 8.05, 8.05, 8.05, 8.05, 8.05, 8.05, 8.05, 8.05, 7.6, 7.6, 7.6, 7.6, 8.05, 8.05, 8.05, 8.05, 7.6, 7.6, 7.15, 7.15, 7.15, 7.6, 7.6, 7.6, 7.6, 7.6, 7.6, 7.15, 7.15, 7.15, 7.15, 7.15, 7.15, 7.15, 7.15, 7.15, 7.15, 7.15, 7.15, 7.6, 7.6, 8.05, 8.05, 8.05, 8.05, 8.05, 8.49, 12.07, 12.07, 12.07, 12.07, 11.62, 11.62, 11.18, 11.18, 10.73, 10.73, 10.73, 10.28, 10.28, 9.83, 9.83, 9.83, 9.83, 9.39, 9.39, 9.39, 9.39, 9.39, 9.39, 9.39, 8.94, 8.94, 8.94, 9.39, 9.83, 9.83, 9.83, 9.83, 9.83, 9.83, 9.83, 9.83, 9.83, 9.83, 9.39, 9.39, 8.94, 8.49, 8.05, 8.05, 7.6, 7.6, 7.6, 7.6, 7.6, 7.6, 7.6, 7.6, 7.6, 7.6, 8.05, 8.05, 8.05, 8.05, 7.6, 7.6, 7.15, 7.6, 7.6, 8.05, 8.05, 8.05, 7.6, 7.6, 7.6, 7.15, 7.15, 7.15, 7.15, 7.6, 8.05, 8.05, 8.05, 8.05, 7.6, 7.6, 7.6, 7.15, 7.15, 7.15, 7.15, 7.15, 7.6, 7.6, 7.6, 7.6, 8.05, 8.05, 8.05, 8.05, 8.05, 8.49, 8.49, 8.49, 12.07, 12.07, 12.07, 11.62, 11.62, 11.18, 11.18, 10.73, 10.73, 10.73, 10.28, 10.28, 10.28, 9.83, 9.83, 9.83, 9.83, 9.39, 9.39, 9.39, 9.39, 9.39, 9.39, 9.39, 9.39, 9.39, 9.39, 9.39, 9.39, 9.83, 9.83, 9.83, 9.83, 9.83, 9.83, 9.83, 10.28, 10.28, 10.28, 9.83, 9.39, 8.94, 8.05, 8.05, 7.6, 7.6, 7.6, 7.6, 7.6, 7.6, 7.6, 7.6, 7.6, 7.6, 7.6, 7.6, 8.05, 8.05, 7.6, 7.15, 7.15, 7.15, 7.6, 7.6, 7.6, 7.6, 7.6, 7.6, 7.6, 7.15, 6.71, 6.71, 6.71, 7.15, 7.6, 8.05, 8.49, 8.05, 8.05, 7.6, 7.6, 7.6, 7.6, 7.6, 7.6, 7.6, 8.05, 8.05, 8.05, 8.05, 8.05, 8.05, 8.05, 8.49, 8.49, 8.49, 8.49, 8.49, 12.07, 12.07, 12.07, 11.62, 11.62, 11.18, 11.18, 10.73, 10.73, 10.28, 10.28, 9.83, 9.83, 9.83, 9.83, 9.83, 9.39, 9.39, 9.39, 9.39, 9.39, 9.39, 9.39, 9.39, 9.39, 9.39, 9.39, 9.39, 9.39, 9.83, 9.83, 9.83, 9.83, 9.83, 10.28, 10.28, 10.28, 10.28, 10.28, 10.28, 9.83, 9.39, 8.49, 8.05, 8.05, 7.6, 7.6, 8.05, 8.05, 8.05, 7.6, 7.6, 7.6, 7.6, 7.6, 7.6, 7.6, 7.6, 7.15, 6.71, 7.15, 7.15, 7.6, 7.6, 7.15, 7.15, 7.15, 7.6, 7.6, 7.15, 6.71, 6.26, 6.26, 6.71, 7.15, 7.6, 8.05, 8.05, 8.05, 8.05, 7.6, 7.6, 7.6, 8.05, 8.05, 8.05, 8.05, 8.05, 8.05, 8.05, 8.05, 8.05, 8.49, 8.49, 8.49, 8.49, 8.49, 8.49, 12.07, 12.07, 11.62, 11.62, 11.18, 11.18, 10.73, 10.73, 10.28, 10.28, 9.83, 9.83, 9.83, 9.83, 9.83, 9.83, 9.39, 9.39, 9.39, 9.39, 9.39, 9.39, 9.39, 9.39, 9.39, 9.39, 9.39, 9.39, 9.39, 9.39, 9.39, 9.83, 9.83, 9.83, 10.28, 10.28, 10.28, 10.28, 10.28, 10.28, 10.28, 9.83, 9.39, 8.94, 8.49, 8.05, 8.05, 8.05, 8.05, 8.05, 8.05, 8.05, 8.05, 7.6, 7.6, 7.6, 7.6, 7.6, 7.15, 7.15, 6.71, 7.15, 7.15, 7.15, 7.15, 7.15, 7.15, 7.6, 7.6, 7.6, 7.15, 6.71, 6.26, 6.71, 6.71, 7.15, 7.15, 7.6, 7.6, 7.6, 7.6, 8.05, 8.05, 8.05, 8.05, 8.05, 8.05, 7.6, 7.6, 7.6, 8.05, 8.05, 8.05, 8.05, 8.49, 8.49, 8.49, 8.49, 12.07, 11.62, 11.62, 11.18, 11.18, 10.73, 10.73, 10.28, 10.28, 9.83, 9.83, 9.83, 9.83, 9.83, 9.39, 9.39, 9.39, 9.39, 9.39, 9.39, 9.39, 9.39, 9.39, 9.39, 9.39, 9.39, 9.39, 9.39, 9.39, 9.39, 9.39, 9.39, 9.83, 9.83, 10.28, 10.28, 10.28, 10.28, 9.83, 10.28, 10.28, 10.28, 10.28, 9.83, 8.94, 8.49, 8.05, 7.6, 7.6, 7.6, 8.05, 8.05, 8.05, 8.05, 8.05, 7.6, 7.6, 7.6, 7.6, 7.15, 7.15, 7.15, 7.15, 7.15, 7.15, 7.15, 7.15, 7.6, 7.6, 7.6, 7.15, 6.71, 6.71, 6.71, 6.71, 6.71, 6.71, 7.15, 7.15, 7.6, 7.6, 8.05, 8.05, 8.05, 8.05, 7.6, 7.6, 7.6, 7.6, 7.6, 7.6, 7.6, 8.05, 8.05, 8.05, 8.49, 8.49, 8.49, 11.62, 11.62, 11.18, 11.18, 10.73, 10.73, 10.28, 10.28, 10.28, 9.83, 9.83, 9.83, 9.83, 9.39, 9.39, 9.39, 9.39, 9.39, 9.39, 9.39, 9.39, 9.39, 9.39, 9.83, 9.83, 9.83, 9.83, 9.39, 9.39, 9.39, 9.39, 9.39, 9.83, 9.83, 9.83, 9.83, 9.83, 9.83, 9.83, 9.83, 10.28, 10.28, 10.28, 10.28, 9.83, 8.94, 8.49, 8.05, 7.6, 7.6, 7.6, 8.05, 8.49, 8.49, 8.49, 8.05, 8.05, 8.05, 8.05, 7.6, 7.15, 7.6, 7.6, 7.15, 7.15, 7.15, 7.15, 7.15, 7.6, 7.6, 7.6, 7.15, 6.71, 6.71, 6.71, 6.71, 6.71, 6.71, 6.71, 7.15, 7.15, 7.15, 7.6, 7.6, 7.6, 7.15, 7.15, 7.15, 7.15, 7.15, 7.15, 7.6, 7.6, 7.6, 8.05, 8.05, 8.49, 8.49, 11.62, 11.18, 11.18, 10.73, 10.73, 10.28, 10.28, 10.28, 9.83, 9.83, 9.83, 9.39, 9.39, 9.39, 9.39, 9.39, 9.39, 9.39, 9.39, 9.39, 9.39, 9.39, 9.83, 9.83, 9.83, 9.83, 9.83, 9.39, 9.39, 9.39, 9.39, 9.39, 9.83, 9.83, 9.39, 9.39, 9.39, 9.39, 9.39, 9.39, 9.83, 10.28, 10.28, 10.73, 10.28, 9.83, 8.94, 8.49, 8.05, 7.6, 7.15, 7.6, 7.6, 8.05, 8.49, 8.49, 8.49, 8.49, 8.49, 8.05, 8.05, 7.6, 7.6, 7.6, 7.15, 7.15, 7.15, 7.15, 7.6, 8.05, 7.6, 7.15, 7.15, 6.71, 6.71, 6.71, 6.71, 6.71, 6.71, 6.71, 6.71, 6.71, 6.71, 7.15, 7.15, 6.71, 6.71, 6.71, 6.71, 7.15, 7.15, 7.15, 7.15, 7.6, 7.6, 8.05, 8.05, 8.05, 11.18, 11.18, 10.73, 10.73, 10.28, 10.28, 10.28, 9.83, 9.83, 9.83, 9.39, 9.39, 9.39, 9.39, 9.39, 9.39, 9.39, 9.39, 9.39, 9.39, 9.39, 9.39, 9.39, 9.83, 9.83, 9.39, 9.39, 9.39, 9.39, 9.39, 8.94, 9.39, 9.39, 9.39, 9.39, 9.39, 8.94, 8.94, 9.39, 9.39, 9.39, 9.83, 10.28, 10.73, 10.28, 9.83, 9.39, 8.94, 8.49, 8.05, 7.6, 7.15, 7.15, 7.6, 8.05, 8.05, 8.49, 8.49, 8.94, 8.94, 8.49, 8.05, 8.05, 7.6, 7.6, 7.15, 7.15, 7.15, 7.6, 8.05, 8.05, 8.05, 7.6, 7.15, 7.15, 6.71, 6.71, 6.71, 6.71, 6.71, 6.71, 6.71, 6.26, 6.71, 6.71, 6.71, 6.71, 6.71, 6.71, 7.15, 7.15, 7.15, 7.15, 7.6, 7.6, 8.05, 8.05, 8.05, 11.18, 10.73, 10.73, 10.28, 10.28, 9.83, 9.83, 9.83, 9.83, 9.39, 9.39, 9.39, 9.39, 9.39, 9.39, 9.39, 9.39, 9.39, 9.39, 9.39, 9.39, 9.39, 9.39, 9.83, 9.83, 9.39, 9.39, 9.39, 9.39, 9.39, 8.94, 8.94, 8.94, 9.39, 9.39, 9.39, 8.94, 8.49, 8.49, 8.49, 8.94, 9.39, 9.83, 10.28, 10.28, 10.28, 9.83, 9.39, 8.94, 8.49, 8.05, 7.6, 7.15, 7.15, 7.15, 7.15, 7.6, 7.6, 8.49, 8.94, 8.94, 8.94, 8.49, 8.05, 8.05, 7.6, 7.15, 7.15, 7.6, 8.05, 8.49, 8.94, 8.49, 8.05, 7.6, 7.15, 6.71, 6.71, 6.71, 6.71, 6.71, 6.71, 6.71, 6.71, 6.71, 6.71, 7.15, 7.15, 7.15, 7.15, 7.15, 7.15, 7.15, 7.15, 7.6, 7.6, 8.05, 8.05, 10.73, 10.73, 10.28, 10.28, 9.83, 9.83, 9.83, 9.83, 9.39, 9.39, 9.39, 9.39, 9.39, 9.39, 9.39, 9.39, 9.39, 9.39, 9.39, 9.39, 9.39, 9.39, 9.39, 9.83, 9.83, 9.39, 9.39, 9.39, 9.39, 9.39, 8.94, 8.94, 8.94, 8.94, 8.94, 8.94, 8.49, 8.49, 8.49, 8.49, 8.49, 8.94, 8.94, 9.83, 9.83, 10.28, 9.83, 9.39, 8.94, 8.49, 8.49, 8.05, 8.05, 8.05, 7.6, 7.6, 7.15, 6.71, 7.6, 8.94, 9.39, 8.94, 8.94, 8.49, 8.49, 8.05, 7.6, 7.15, 7.15, 7.6, 8.49, 8.94, 8.94, 8.94, 8.05, 7.6, 7.15, 7.15, 7.15, 7.15, 7.15, 7.15, 7.15, 7.15, 6.71, 7.15, 7.15, 7.15, 7.15, 7.15, 7.15, 6.71, 7.15, 7.15, 7.15, 7.6, 7.6, 8.05, 10.73, 10.28, 10.28, 9.83, 9.83, 9.83, 9.39, 9.39, 9.39, 9.39, 9.39, 9.39, 9.39, 9.39, 9.39, 9.39, 9.39, 9.39, 9.83, 9.83, 9.39, 9.39, 9.39, 9.39, 9.39, 9.39, 9.39, 9.39, 9.39, 9.39, 8.94, 8.94, 8.94, 8.94, 8.94, 8.94, 8.49, 8.49, 8.49, 8.05, 8.49, 8.49, 8.94, 9.39, 9.83, 9.83, 9.83, 9.39, 9.39, 8.94, 8.49, 8.49, 8.49, 8.49, 8.05, 8.05, 7.6, 7.15, 6.71, 7.6, 8.94, 8.94, 8.94, 8.49, 8.49, 8.05, 8.05, 7.6, 7.15, 7.15, 7.6, 8.49, 8.94, 8.94, 8.49, 8.05, 7.6, 7.6, 7.15, 7.15, 7.15, 7.15, 7.6, 7.6, 7.6, 7.15, 7.6, 7.6, 7.15, 7.15, 7.15, 6.71, 6.71, 6.71, 6.71, 7.15, 7.6, 7.6, 10.28, 10.28, 9.83, 9.83, 9.83, 9.39, 9.39, 9.39, 9.39, 9.39, 9.39, 9.39, 9.39, 9.39, 9.39, 9.39, 9.39, 9.39, 9.83, 9.83, 9.83, 9.39, 9.39, 9.39, 9.39, 9.39, 9.39, 9.39, 9.39, 9.39, 8.94, 8.94, 8.49, 8.49, 8.49, 8.94, 8.49, 8.49, 8.49, 8.05, 8.05, 8.49, 8.49, 8.94, 9.39, 9.39, 9.83, 9.39, 9.39, 8.94, 8.49, 8.49, 8.49, 8.49, 8.05, 8.05, 7.6, 7.6, 6.71, 7.15, 8.05, 8.49, 8.49, 8.49, 8.05, 8.05, 8.05, 8.05, 7.6, 7.6, 7.6, 8.05, 8.94, 8.94, 8.94, 8.49, 8.05, 8.05, 7.6, 7.6, 7.6, 7.6, 7.6, 7.6, 7.6, 7.6, 7.6, 7.15, 7.15, 7.15, 7.15, 6.71, 6.71, 6.71, 6.71, 6.71, 7.15, 7.15, 10.28, 9.83, 9.83, 9.83, 9.39, 9.39, 9.39, 9.39, 9.39, 9.39, 9.39, 9.39, 9.39, 9.39, 9.39, 9.39, 9.39, 9.39, 9.83, 9.83, 9.83, 9.39, 9.39, 9.39, 9.39, 9.39, 9.39, 9.39, 9.39, 9.39, 8.94, 8.94, 8.49, 8.49, 8.49, 8.49, 8.49, 8.49, 8.05, 8.49, 8.49, 8.49, 8.49, 8.49, 8.94, 9.39, 9.39, 9.39, 8.94, 8.94, 8.94, 8.49, 8.49, 8.49, 8.49, 8.05, 8.05, 7.6, 7.6, 7.15, 7.6, 8.05, 8.05, 8.05, 8.05, 8.05, 8.05, 7.6, 7.15, 7.15, 7.15, 8.05, 8.94, 8.94, 8.94, 8.49, 8.49, 8.49, 8.05, 8.05, 7.6, 7.6, 7.6, 7.6, 7.6, 7.6, 7.6, 7.15, 7.15, 7.15, 6.71, 6.71, 6.71, 6.71, 6.71, 6.71, 6.71, 6.71, 9.83, 9.83, 9.39, 9.39, 9.39, 9.39, 9.39, 9.39, 9.39, 9.39, 9.39, 9.39, 9.39, 9.39, 9.39, 9.39, 9.39, 9.39, 9.83, 9.83, 9.83, 9.39, 9.39, 9.39, 9.39, 9.39, 9.39, 9.39, 9.39, 9.39, 9.39, 8.94, 8.49, 8.49, 8.05, 8.05, 8.05, 8.05, 8.05, 8.05, 8.49, 8.49, 8.49, 8.49, 8.49, 8.94, 8.94, 8.94, 8.94, 8.94, 8.94, 8.49, 8.49, 8.49, 8.49, 8.49, 8.49, 8.05, 7.6, 7.6, 7.6, 7.6, 7.6, 8.05, 8.05, 8.05, 8.05, 7.6, 7.6, 7.15, 6.71, 7.6, 8.94, 8.94, 8.49, 8.49, 8.05, 8.05, 8.49, 8.05, 8.05, 7.6, 7.6, 7.6, 7.6, 7.15, 7.15, 7.15, 7.15, 7.15, 7.15, 7.15, 6.71, 6.71, 6.71, 7.15, 6.71, 6.71, 9.83, 9.39, 9.39, 9.39, 9.39, 8.94, 8.94, 8.94, 8.94, 8.94, 9.39, 9.39, 9.39, 9.39, 9.39, 9.39, 9.39, 9.39, 9.83, 9.83, 9.83, 9.83, 9.39, 9.39, 9.39, 9.39, 9.39, 9.39, 9.39, 9.39, 8.94, 8.94, 8.94, 8.49, 8.05, 8.05, 8.05, 8.05, 8.05, 8.05, 8.49, 8.49, 8.49, 8.49, 8.49, 8.94, 8.94, 8.94, 8.94, 8.94, 8.49, 8.49, 8.49, 8.49, 8.49, 8.49, 8.49, 8.05, 8.05, 7.6, 7.6, 7.6, 7.6, 7.6, 7.6, 7.6, 7.6, 7.6, 7.6, 7.6, 6.71, 6.71, 8.05, 8.49, 8.49, 8.05, 7.6, 7.6, 8.05, 8.49, 8.05, 8.05, 8.05, 7.6, 7.6, 7.15, 7.15, 7.15, 7.15, 7.15, 7.6, 7.15, 7.15, 7.15, 7.15, 7.15, 7.15, 7.15, 9.39, 9.39, 9.39, 9.39, 8.94, 8.94, 8.94, 8.94, 8.94, 8.94, 8.94, 9.39, 9.39, 9.39, 9.39, 9.39, 9.39, 9.39, 9.39, 9.83, 9.83, 9.83, 9.39, 9.39, 9.39, 9.39, 9.39, 9.39, 9.39, 8.94, 8.94, 8.94, 8.49, 8.49, 8.05, 8.05, 7.6, 7.6, 8.05, 8.05, 8.05, 8.49, 8.49, 8.49, 8.49, 8.49, 8.94, 8.94, 8.94, 8.94, 8.49, 8.49, 8.49, 8.49, 8.49, 8.49, 8.05, 8.05, 8.05, 7.6, 7.6, 7.15, 7.15, 7.15, 7.15, 7.6, 7.6, 7.6, 7.6, 7.6, 7.15, 6.71, 7.15, 8.05, 8.49, 8.05, 7.6, 7.6, 8.05, 8.49, 8.49, 8.49, 8.49, 8.05, 7.6, 7.6, 7.6, 7.6, 7.6, 7.6, 7.6, 7.6, 7.6, 7.15, 7.15, 7.15, 7.6, 7.6, 9.39, 9.39, 8.94, 8.94, 8.94, 8.94, 8.94, 8.94, 8.94, 8.94, 8.94, 9.39, 9.39, 9.39, 9.39, 9.39, 9.39, 9.39, 9.39, 9.39, 9.83, 9.83, 9.39, 9.39, 9.39, 9.39, 9.39, 9.39, 9.39, 8.94, 8.94, 8.94, 8.49, 8.49, 8.05, 8.05, 7.6, 7.6, 7.6, 7.6, 8.05, 8.05, 8.49, 8.49, 8.49, 8.49, 8.49, 8.49, 8.49, 8.49, 8.49, 8.49, 8.49, 8.49, 8.05, 8.05, 8.05, 8.05, 8.05, 7.6, 7.6, 7.6, 7.15, 7.15, 7.15, 7.6, 7.6, 7.6, 7.6, 7.6, 7.15, 6.71, 7.15, 8.05, 8.49, 8.05, 7.6, 7.15, 7.6, 7.6, 8.05, 8.49, 8.49, 8.05, 8.05, 7.6, 7.6, 7.6, 8.05, 7.6, 8.05, 8.05, 7.6, 7.6, 7.15, 7.15, 7.6, 7.6, 9.39, 8.94, 8.94, 8.94, 8.94, 8.94, 8.94, 8.94, 8.94, 8.94, 8.94, 8.94, 9.39, 9.39, 9.39, 9.39, 9.39, 9.39, 9.39, 9.39, 9.39, 9.39, 9.39, 9.39, 8.94, 8.94, 8.94, 8.94, 8.94, 8.94, 8.94, 8.49, 8.49, 8.49, 8.05, 8.05, 7.6, 7.6, 7.6, 7.6, 7.6, 8.05, 8.49, 8.49, 8.49, 8.49, 8.49, 8.49, 8.49, 8.49, 8.49, 8.49, 8.49, 8.49, 8.05, 8.05, 8.05, 8.05, 8.05, 8.05, 7.6, 7.6, 7.15, 7.15, 7.15, 7.15, 7.6, 7.6, 7.6, 7.15, 7.15, 6.71, 6.26, 7.6, 8.49, 7.6, 7.15, 7.15, 7.15, 7.15, 7.6, 8.05, 8.05, 8.05, 8.05, 8.05, 8.05, 8.05, 8.05, 8.05, 8.05, 8.05, 8.05, 7.6, 7.6, 7.6, 7.6, 7.6, 8.94, 8.94, 8.94, 8.94, 8.94, 8.94, 8.94, 8.94, 8.94, 8.94, 8.94, 8.94, 9.39, 9.39, 9.39, 9.39, 9.39, 9.39, 9.39, 9.39, 9.39, 9.39, 9.39, 9.39, 8.94, 8.94, 8.94, 8.94, 8.94, 8.94, 8.49, 8.49, 8.49, 8.05, 8.05, 8.05, 8.05, 7.6, 7.6, 7.6, 7.6, 8.05, 8.05, 8.49, 8.49, 8.49, 8.49, 8.49, 8.49, 8.49, 8.49, 8.49, 8.49, 8.05, 8.05, 8.05, 8.05, 7.6, 8.05, 8.05, 8.05, 7.6, 7.15, 7.15, 7.15, 7.15, 7.15, 7.6, 7.6, 7.15, 7.15, 6.71, 6.71, 8.05, 8.05, 7.6, 7.15, 7.15, 7.15, 7.15, 7.15, 7.15, 7.6, 7.6, 7.6, 7.6, 8.05, 8.05, 8.05, 8.05, 8.05, 8.05, 8.05, 8.05, 7.6, 7.6, 7.6, 7.6, 8.94, 8.94, 8.94, 8.94, 8.94, 8.94, 8.94, 8.94, 8.94, 8.94, 8.94, 8.94, 9.39, 9.39, 9.39, 9.39, 9.39, 9.39, 9.39, 9.39, 9.39, 9.39, 9.39, 8.94, 8.94, 8.94, 8.94, 8.94, 8.94, 8.49, 8.49, 8.49, 8.05, 8.05, 8.05, 8.05, 8.05, 7.6, 7.6, 7.6, 7.6, 7.6, 8.05, 8.49, 8.49, 8.49, 8.49, 8.49, 8.49, 8.49, 8.49, 8.49, 8.49, 8.05, 8.05, 8.05, 7.6, 7.6, 7.6, 8.05, 8.49, 8.05, 7.6, 7.15, 7.15, 7.15, 7.15, 7.15, 7.6, 7.6, 7.15, 6.71, 7.15, 7.6, 7.6, 7.15, 6.71, 6.71, 7.15, 7.15, 6.71, 6.71, 6.71, 7.15, 7.15, 7.6, 7.6, 8.05, 8.05, 8.05, 8.05, 8.05, 8.05, 8.05, 8.05, 8.05, 8.05, 8.05, 8.94, 8.94, 8.94, 8.49, 8.49, 8.49, 8.94, 8.94, 8.94, 8.94, 8.94, 8.94, 9.39, 9.39, 9.39, 9.39, 9.39, 9.39, 9.39, 9.39, 8.94, 8.94, 8.94, 8.94, 8.94, 8.94, 8.49, 8.49, 8.49, 8.49, 8.49, 8.05, 8.05, 8.05, 8.05, 8.05, 7.6, 7.6, 7.6, 7.6, 7.6, 7.6, 8.05, 8.05, 8.49, 8.49, 8.49, 8.49, 8.49, 8.05, 8.05, 8.05, 8.05, 8.05, 8.05, 8.05, 7.6, 7.6, 7.6, 7.6, 8.05, 8.05, 7.6, 7.15, 7.15, 7.15, 7.15, 7.15, 7.15, 7.6, 7.6, 7.15, 6.71, 7.15, 7.6, 7.15, 6.71, 6.71, 6.71, 6.71, 6.71, 6.26, 6.26, 6.71, 7.15, 7.6, 7.6, 8.05, 8.05, 8.05, 7.6, 8.05, 8.05, 8.05, 8.05, 8.05, 8.05, 8.05, 8.49, 8.49, 8.49, 8.49, 8.49, 8.49, 8.49, 8.94, 8.94, 8.94, 8.94, 8.94, 8.94, 8.94, 9.39, 9.39, 9.39, 9.39, 8.94, 8.94, 8.94, 8.94, 8.94, 8.94, 8.94, 8.94, 8.49, 8.49, 8.49, 8.05, 8.05, 8.05, 8.05, 8.05, 8.05, 8.05, 7.6, 7.6, 7.6, 7.6, 7.6, 7.6, 7.6, 8.05, 8.49, 8.49, 8.49, 8.49, 8.05, 8.05, 8.05, 8.05, 8.05, 8.05, 8.05, 8.05, 8.05, 7.6, 7.6, 7.6, 8.05, 8.05, 8.05, 7.6, 7.15, 7.15, 7.15, 7.15, 7.15, 7.6, 7.6, 7.15, 6.71, 6.71, 7.15, 7.15, 7.15, 6.71, 6.71, 6.71, 6.26, 6.26, 5.81, 6.26, 6.71, 7.15, 7.6, 7.6, 7.6, 7.6, 7.6, 7.6, 7.6, 8.05, 8.05, 8.05, 8.05, 8.05, 8.49, 8.49, 8.49, 8.49, 8.49, 8.49, 8.49, 8.49, 8.94, 8.94, 8.94, 8.94, 8.94, 8.94, 8.94, 8.94, 8.94, 8.94, 8.94, 8.94, 8.94, 8.94, 8.94, 8.94, 8.94, 8.49, 8.49, 8.49, 8.05, 8.05, 8.05, 7.6, 7.6, 8.05, 8.05, 8.05, 7.6, 7.6, 7.6, 7.6, 7.6, 7.6, 7.6, 8.05, 8.05, 8.49, 8.49, 8.05, 8.05, 8.05, 8.05, 8.05, 8.05, 8.05, 8.05, 8.05, 8.05, 7.6, 7.6, 7.6, 7.6, 7.6, 8.05, 8.05, 7.6, 7.15, 6.71, 7.15, 7.15, 7.6, 7.6, 7.15, 6.71, 6.26, 6.26, 6.71, 6.71, 7.15, 6.71, 6.26, 6.26, 5.81, 5.81, 5.81, 6.26, 6.71, 7.15, 7.15, 7.15, 7.15, 7.15, 7.15, 7.6, 7.6, 8.05, 8.05, 8.05, 8.05, 8.49, 8.49, 8.49, 8.49, 8.49, 8.49, 8.49, 8.49, 8.94, 8.94, 8.94, 8.94, 8.94, 8.94, 8.94, 8.94, 8.94, 8.94, 8.94, 8.94, 8.49, 8.49, 8.49, 8.49, 8.49, 8.49, 8.49, 8.05, 8.05, 7.6, 7.6, 7.6, 7.6, 7.6, 8.05, 8.05, 8.05, 8.05, 8.05, 7.6, 7.6, 7.6, 8.05, 8.05, 8.05, 8.05, 8.05, 8.05, 8.05, 8.05, 8.05, 8.05, 7.6, 7.6, 8.05, 8.05, 8.05, 8.05, 7.6, 7.15, 7.15, 7.15, 7.6, 8.05, 7.6, 7.15, 7.15, 7.15, 7.15, 7.6, 7.6, 7.6, 7.15, 6.26, 5.36, 5.36, 6.26, 7.15, 7.15, 6.26, 5.81, 5.81, 5.81, 6.26, 6.26, 6.71, 6.71, 6.71, 6.71, 7.15, 7.15, 7.15, 7.6, 7.6, 8.05, 8.05, 8.05, 8.05, 8.49, 8.49, 8.49, 8.49, 8.49, 8.49, 8.49, 8.49, 8.49, 8.49, 8.94, 8.94, 8.94, 8.94, 8.94, 8.94, 8.94, 8.94, 8.49, 8.49, 8.49, 8.49, 8.49, 8.49, 8.49, 8.05, 8.05, 8.05, 7.6, 7.6, 7.6, 7.6, 7.6, 7.6, 7.6, 8.05, 8.05, 8.05, 8.05, 8.05, 8.05, 8.05, 8.05, 8.05, 8.05, 8.05, 8.05, 8.05, 7.6, 8.05, 8.05, 8.05, 8.05, 8.05, 8.05, 8.05, 8.05, 8.05, 7.6, 7.15, 7.15, 7.15, 7.15, 7.6, 8.05, 7.15, 7.15, 7.6, 7.6, 7.6, 7.6, 7.6, 7.6, 6.71, 5.81, 4.92, 6.26, 7.15, 6.71, 6.26, 5.81, 5.36, 5.81, 5.81, 6.26, 6.71, 6.71, 6.71, 6.71, 6.71, 7.15, 7.15, 7.15, 7.6, 8.05, 8.05, 7.6, 7.6, 8.49, 8.49, 8.49, 8.49, 8.49, 8.49, 8.49, 8.49, 8.49, 8.49, 8.49, 8.49, 8.49, 8.49, 8.49, 8.49, 8.49, 8.49, 8.49, 8.49, 8.49, 8.49, 8.05, 8.05, 8.05, 8.05, 7.6, 7.6, 7.6, 7.6, 7.6, 7.6, 7.6, 7.6, 8.05, 8.05, 8.05, 8.05, 8.05, 8.05, 8.05, 8.05, 7.6, 7.6, 7.6, 7.6, 7.6, 7.6, 7.6, 7.6, 7.6, 8.05, 8.05, 8.05, 8.05, 8.05, 8.05, 8.05, 7.6, 7.15, 7.15, 6.71, 7.15, 7.6, 7.6, 7.15, 7.15, 7.6, 8.05, 8.05, 7.6, 7.6, 7.6, 7.15, 6.26, 5.81, 6.26, 6.71, 6.71, 6.26, 5.81, 5.36, 5.81, 5.81, 6.26, 6.26, 6.26, 6.71, 6.71, 6.71, 7.15, 7.15, 7.15, 7.6, 7.6, 7.6, 7.6, 7.6, 8.49, 8.49, 8.49, 8.49, 8.49, 8.49, 8.49, 8.49, 8.49, 8.49, 8.49, 8.49, 8.49, 8.49, 8.49, 8.49, 8.49, 8.49, 8.49, 8.49, 8.49, 8.05, 8.05, 8.05, 7.6, 7.6, 7.6, 7.6, 7.6, 7.6, 7.6, 7.6, 7.6, 7.6, 8.05, 8.05, 8.05, 8.05, 8.05, 8.05, 8.05, 7.6, 7.6, 7.6, 7.6, 7.6, 7.6, 7.6, 8.05, 8.05, 8.05, 8.49, 8.49, 8.49, 8.49, 8.05, 8.05, 8.05, 7.6, 7.15, 7.15, 6.71, 7.15, 7.6, 7.6, 7.6, 7.6, 7.15, 7.6, 7.6, 8.05, 8.05, 7.6, 6.71, 6.26, 6.26, 6.26, 6.71, 6.71, 6.26, 5.81, 5.81, 5.81, 5.81, 6.26, 6.26, 6.26, 6.26, 6.71, 6.71, 7.15, 7.15, 7.15, 7.15, 7.6, 7.6, 7.15, 7.15, 8.05, 8.05, 8.05, 8.05, 8.05, 8.05, 8.49, 8.49, 8.49, 8.49, 8.49, 8.49, 8.49, 8.49, 8.49, 8.49, 8.49, 8.49, 8.49, 8.05, 8.05, 8.05, 7.6, 7.6, 7.6, 7.6, 7.6, 7.6, 7.6, 7.6, 7.6, 7.6, 7.6, 7.6, 8.05, 8.05, 8.05, 8.05, 7.6, 7.6, 7.6, 7.6, 7.6, 7.6, 7.6, 7.6, 7.6, 8.05, 8.05, 8.49, 8.49, 8.94, 8.94, 8.94, 8.49, 8.49, 8.05, 7.6, 7.6, 7.6, 7.15, 7.15, 7.15, 7.6, 7.6, 8.05, 8.05, 7.6, 7.6, 7.6, 8.05, 8.05, 8.05, 6.26, 5.81, 6.26, 6.26, 6.26, 6.26, 6.26, 6.26, 6.26, 6.26, 6.26, 6.26, 6.26, 6.26, 6.26, 6.71, 6.71, 7.15, 7.15, 7.15, 7.15, 7.15, 7.15, 7.15, 7.15, 8.05, 8.05, 8.05, 8.05, 8.05, 8.05, 8.05, 8.05, 8.05, 8.05, 8.05, 8.05, 8.05, 8.05, 8.05, 8.05, 8.05, 8.05, 8.05, 7.6, 7.6, 7.6, 7.6, 7.6, 7.6, 7.6, 7.6, 7.6, 7.6, 7.6, 7.6, 7.6, 7.6, 7.6, 7.6, 7.6, 7.6, 7.6, 7.6, 7.6, 7.6, 7.6, 7.6, 7.6, 7.6, 7.6, 7.6, 8.05, 8.49, 8.94, 8.94, 8.94, 8.94, 8.94, 8.49, 8.05, 8.05, 7.6, 7.6, 7.6, 7.15, 7.15, 7.15, 7.15, 7.6, 7.6, 8.05, 8.05, 8.05, 7.6, 7.6, 8.49, 8.05, 6.71, 5.81, 6.26, 6.26, 5.81, 5.81, 6.26, 6.26, 6.71, 6.71, 6.26, 6.26, 6.26, 6.26, 6.26, 6.71, 6.71, 7.15, 7.15, 7.15, 6.71, 6.71, 6.71, 6.71, 6.71, 8.05, 8.05, 8.05, 8.05, 8.05, 8.05, 8.05, 8.05, 8.05, 8.05, 8.05, 8.05, 8.05, 8.05, 8.05, 8.05, 7.6, 7.6, 7.6, 7.6, 7.6, 7.6, 7.6, 7.15, 7.15, 7.15, 7.15, 7.15, 7.6, 7.6, 7.6, 7.6, 7.6, 7.6, 7.6, 7.6, 7.6, 7.6, 7.6, 7.6, 7.6, 7.6, 8.05, 8.05, 8.05, 8.05, 8.05, 8.49, 8.94, 9.39, 9.39, 8.94, 8.94, 8.49, 8.05, 8.05, 7.6, 7.6, 7.6, 7.15, 7.15, 7.15, 7.15, 7.15, 7.6, 7.6, 8.05, 8.05, 8.05, 7.6, 7.6, 8.05, 8.05, 6.71, 5.81, 6.26, 6.26, 5.81, 5.36, 5.81, 6.26, 7.15, 7.15, 6.71, 6.26, 6.26, 6.26, 6.26, 6.26, 6.71, 7.15, 7.15, 7.15, 7.15, 6.71, 6.71, 6.71, 6.71, 8.05, 8.05, 8.05, 8.05, 8.05, 8.05, 8.05, 8.05, 8.05, 8.05, 8.05, 8.05, 8.05, 8.05, 7.6, 7.6, 7.6, 7.6, 7.6, 7.15, 7.15, 7.15, 7.15, 7.15, 7.15, 7.15, 7.15, 7.15, 7.15, 7.15, 7.15, 7.15, 7.15, 7.15, 7.15, 7.15, 7.15, 7.15, 7.6, 7.6, 8.05, 8.05, 8.49, 8.49, 8.49, 8.49, 8.49, 8.49, 8.94, 9.39, 9.39, 8.94, 8.49, 8.05, 8.05, 8.05, 7.6, 7.6, 7.15, 7.15, 7.15, 6.71, 7.15, 7.15, 7.6, 7.6, 8.05, 8.05, 8.05, 7.6, 7.15, 7.6, 7.15, 6.71, 5.81, 5.81, 6.26, 5.81, 5.36, 5.36, 6.26, 7.15, 7.15, 7.15, 6.71, 6.26, 6.26, 6.26, 6.26, 6.71, 6.71, 7.15, 7.15, 7.15, 6.71, 6.71, 6.26, 6.26, 8.05, 8.05, 8.05, 8.05, 8.05, 8.05, 8.05, 8.05, 8.05, 8.05, 8.05, 8.05, 8.05, 7.6, 7.6, 7.6, 7.15, 7.15, 7.15, 7.15, 7.15, 7.15, 7.15, 7.15, 7.15, 7.15, 7.15, 7.15, 6.71, 6.71, 6.71, 6.71, 6.71, 7.15, 7.15, 7.15, 7.15, 7.6, 7.6, 8.05, 8.05, 8.49, 8.94, 8.94, 8.94, 8.94, 8.94, 8.94, 8.94, 9.39, 8.94, 8.94, 8.49, 8.05, 8.05, 7.6, 7.6, 7.6, 7.15, 7.15, 7.15, 6.71, 7.15, 7.6, 7.6, 8.05, 8.49, 8.49, 8.05, 7.6, 7.15, 7.15, 6.71, 6.26, 5.36, 5.81, 6.26, 6.26, 5.36, 5.36, 6.26, 6.71, 7.15, 6.71, 6.71, 6.71, 6.71, 6.71, 6.71, 6.71, 6.71, 6.71, 6.71, 7.15, 7.15, 6.71, 6.26, 6.26, 8.05, 8.05, 7.6, 7.6, 7.6, 7.6, 7.6, 7.6, 7.6, 7.6, 7.6, 7.6, 7.6, 7.6, 7.6, 7.15, 7.15, 7.15, 7.15, 7.15, 7.15, 7.15, 7.15, 7.15, 7.15, 6.71, 6.71, 6.71, 6.71, 6.71, 6.71, 6.71, 6.71, 6.71, 6.71, 7.15, 7.6, 7.6, 8.05, 8.49, 8.94, 8.94, 8.94, 8.94, 8.94, 8.94, 8.94, 8.94, 8.94, 8.94, 8.49, 8.49, 8.05, 8.05, 7.6, 7.6, 7.6, 7.15, 7.15, 7.15, 7.6, 7.6, 7.6, 7.6, 8.05, 8.05, 8.49, 8.05, 8.05, 7.6, 7.15, 6.71, 6.26, 5.81, 5.36, 5.36, 5.81, 5.81, 5.81, 5.81, 6.26, 6.26, 6.26, 6.26, 6.71, 6.71, 6.71, 6.71, 6.71, 6.71, 6.71, 6.71, 6.71, 7.15, 7.15, 6.71, 6.71, 6.71, 7.6, 7.6, 7.6, 7.6, 7.6, 7.6, 7.6, 7.6, 7.6, 7.6, 7.6, 7.6, 7.15, 7.15, 7.15, 7.15, 7.15, 7.15, 6.71, 6.71, 6.71, 6.71, 6.71, 6.71, 6.71, 6.71, 6.26, 6.26, 6.26, 6.26, 6.26, 6.26, 6.71, 6.71, 7.15, 7.6, 8.05, 8.49, 8.49, 8.94, 8.94, 9.39, 9.39, 8.94, 8.94, 8.94, 8.94, 8.94, 8.49, 8.49, 8.49, 8.05, 8.05, 8.05, 7.6, 7.6, 7.6, 7.6, 7.6, 7.6, 8.05, 8.05, 8.05, 8.05, 8.05, 8.05, 8.05, 8.05, 7.6, 7.6, 7.15, 6.71, 6.26, 4.92, 4.92, 5.36, 5.81, 5.81, 6.26, 6.71, 6.71, 6.26, 5.81, 5.81, 6.26, 6.26, 6.71, 6.71, 6.71, 6.71, 6.71, 6.71, 6.71, 7.15, 6.71, 6.71, 6.71, 6.71, 7.6, 7.6, 7.6, 7.6, 7.6, 7.6, 7.6, 7.6, 7.6, 7.6, 7.15, 7.15, 7.15, 7.15, 7.15, 6.71, 6.71, 6.71, 6.71, 6.71, 6.71, 6.71, 6.71, 6.71, 6.26, 6.26, 5.81, 5.81, 5.81, 6.26, 6.26, 6.26, 6.71, 7.15, 7.6, 8.05, 8.49, 8.94, 8.94, 9.39, 9.39, 9.39, 9.39, 8.94, 8.94, 8.94, 8.94, 8.94, 8.49, 8.05, 8.05, 8.05, 8.05, 8.05, 7.6, 7.6, 7.6, 7.6, 8.05, 8.05, 8.05, 8.05, 8.05, 8.05, 8.05, 8.05, 8.05, 7.6, 7.6, 7.15, 7.15, 6.71, 5.81, 4.92, 4.02, 4.92, 5.81, 6.26, 6.26, 6.71, 7.15, 6.71, 5.81, 5.81, 5.81, 5.81, 6.26, 6.26, 6.71, 6.71, 6.71, 6.71, 6.71, 7.15, 6.71, 6.71, 6.26, 6.71, 7.6, 7.6, 7.6, 7.6, 7.6, 7.6, 7.6, 7.6, 7.6, 7.15, 7.15, 7.15, 7.15, 6.71, 6.71, 6.71, 6.71, 6.71, 6.71, 6.71, 6.71, 6.71, 6.26, 6.26, 5.81, 5.81, 5.81, 5.81, 5.81, 6.26, 6.26, 6.71, 7.15, 8.05, 8.49, 8.94, 9.39, 9.39, 9.39, 9.39, 9.39, 9.39, 9.39, 8.94, 8.49, 8.49, 8.49, 8.49, 8.49, 8.05, 8.05, 8.05, 8.05, 7.6, 7.6, 7.6, 7.6, 8.05, 8.49, 8.49, 8.49, 8.49, 8.05, 8.05, 8.05, 7.6, 7.6, 7.6, 7.15, 7.15, 6.71, 6.26, 5.81, 4.92, 4.02, 4.02, 4.92, 5.81, 6.26, 6.71, 7.15, 7.15, 6.26, 5.81, 5.81, 5.81, 5.81, 6.26, 6.26, 6.71, 6.71, 6.71, 6.71, 6.71, 6.71, 6.71, 6.71, 6.71, 7.6, 7.6, 7.6, 7.6, 7.6, 7.6, 7.15, 7.15, 7.15, 7.15, 6.71, 6.71, 6.71, 6.71, 6.71, 6.71, 6.71, 6.71, 6.71, 6.26, 6.26, 6.26, 6.26, 5.81, 5.81, 5.36, 5.36, 5.81, 5.81, 6.26, 6.71, 7.6, 8.05, 8.94, 9.39, 9.39, 9.83, 9.83, 9.83, 9.83, 9.83, 9.39, 9.39, 8.94, 8.49, 8.49, 8.49, 8.49, 8.05, 8.05, 7.6, 7.6, 7.6, 8.05, 8.05, 8.05, 8.49, 8.49, 8.49, 8.49, 8.49, 8.05, 8.05, 8.05, 7.6, 7.6, 7.15, 7.15, 7.15, 6.71, 6.26, 5.81, 5.81, 5.36, 4.02, 3.58, 4.02, 5.36, 6.71, 6.71, 6.71, 6.71, 6.26, 6.26, 6.26, 6.26, 6.26, 6.26, 6.26, 6.26, 6.26, 6.26, 6.71, 6.71, 6.71, 6.71, 6.71, 6.71, 7.6, 7.6, 7.6, 7.6, 7.15, 7.15, 7.15, 7.15, 6.71, 6.71, 6.71, 6.71, 6.71, 6.71, 6.71, 6.26, 6.26, 6.26, 6.26, 6.26, 6.26, 6.26, 5.81, 5.36, 5.36, 5.36, 5.36, 5.81, 6.26, 6.71, 7.6, 8.49, 8.94, 9.39, 9.83, 9.83, 9.83, 9.83, 9.83, 9.83, 9.83, 9.39, 9.39, 8.94, 8.49, 8.49, 8.49, 8.49, 8.05, 8.05, 7.6, 7.6, 7.6, 8.05, 8.49, 8.49, 8.49, 8.49, 8.49, 8.49, 8.49, 8.05, 8.05, 7.6, 7.15, 7.15, 6.71, 6.71, 6.71, 6.26, 6.26, 5.81, 5.36, 4.92, 4.47, 3.58, 3.58, 4.92, 6.26, 7.15, 6.71, 6.26, 6.26, 6.26, 6.71, 6.71, 6.71, 6.26, 6.26, 6.26, 6.26, 6.26, 6.71, 6.71, 6.71, 6.71, 6.71, 6.71, 7.6, 7.6, 7.15, 7.15, 7.15, 7.15, 7.15, 6.71, 6.71, 6.71, 6.71, 6.26, 6.26, 6.26, 6.26, 6.26, 6.26, 6.26, 6.26, 6.26, 5.81, 5.81, 5.36, 5.36, 5.36, 5.36, 5.81, 6.26, 6.71, 7.6, 8.49, 8.94, 9.39, 9.83, 9.83, 10.28, 10.28, 10.28, 9.83, 9.83, 9.39, 9.39, 8.94, 8.94, 8.49, 8.05, 8.05, 8.05, 8.05, 8.05, 7.6, 7.6, 8.05, 8.49, 8.49, 8.49, 8.49, 8.49, 8.49, 8.49, 8.05, 8.05, 7.6, 7.15, 6.71, 6.71, 6.26, 6.26, 6.26, 5.81, 5.81, 5.81, 5.36, 5.36, 4.92, 4.02, 3.58, 4.47, 5.81, 6.71, 7.15, 6.71, 6.26, 6.26, 6.71, 7.15, 7.15, 6.71, 6.71, 6.71, 6.71, 6.71, 6.71, 6.71, 6.71, 6.71, 6.71, 6.71, 7.15, 7.15, 7.15, 7.15, 7.15, 6.71, 6.71, 6.71, 6.71, 6.26, 6.26, 6.26, 6.26, 6.26, 6.26, 6.26, 6.26, 6.26, 6.26, 6.26, 5.81, 5.36, 5.36, 5.36, 5.36, 5.36, 5.81, 6.71, 7.6, 8.05, 8.94, 9.39, 9.83, 10.28, 10.28, 10.28, 10.28, 10.28, 9.83, 9.83, 9.39, 9.39, 8.94, 8.49, 8.49, 8.05, 8.05, 8.05, 8.05, 8.05, 8.05, 8.05, 8.49, 8.49, 8.49, 8.49, 8.49, 8.49, 8.05, 8.05, 8.05, 7.6, 7.15, 6.71, 6.71, 6.26, 6.26, 5.81, 5.81, 5.81, 5.81, 5.81, 5.36, 5.36, 4.92, 4.47, 4.02, 4.02, 5.36, 6.71, 7.15, 6.71, 6.26, 5.81, 6.26, 6.71, 7.15, 7.15, 7.15, 6.71, 6.71, 6.71, 6.71, 6.71, 6.71, 6.71, 6.71, 6.71, 7.15, 7.15, 7.15, 7.15, 6.71, 6.71, 6.71, 6.71, 6.26, 6.26, 6.26, 6.26, 6.26, 6.26, 6.26, 6.26, 5.81, 5.81, 5.81, 5.81, 5.36, 5.36, 4.92, 4.92, 5.36, 5.36, 6.26, 7.15, 8.05, 8.94, 9.39, 9.83, 10.28, 10.28, 10.28, 10.28, 10.28, 9.83, 9.83, 9.39, 9.39, 8.94, 8.94, 8.49, 8.49, 8.05, 8.05, 8.05, 8.05, 8.05, 8.05, 8.05, 8.49, 8.49, 8.49, 8.49, 8.05, 8.05, 8.05, 8.05, 7.6, 7.15, 6.71, 6.26, 6.26, 6.26, 5.81, 5.81, 5.36, 5.36, 5.36, 5.81, 5.36, 5.36, 4.92, 4.47, 4.47, 4.47, 4.92, 6.26, 7.15, 7.15, 6.71, 6.71, 6.26, 6.71, 7.15, 7.15, 7.15, 7.15, 7.15, 7.15, 6.71, 6.71, 6.71, 6.26, 6.26, 6.26, 7.15, 7.15, 7.15, 6.71, 6.71, 6.71, 6.26, 6.26, 6.26, 6.26, 6.26, 6.26, 5.81, 5.81, 5.81, 5.81, 5.81, 5.81, 5.81, 5.81, 5.36, 4.92, 4.92, 4.92, 5.36, 5.81, 6.71, 7.6, 8.49, 9.39, 9.83, 10.28, 10.28, 10.28, 10.28, 10.28, 9.83, 9.83, 9.83, 9.39, 9.39, 8.94, 8.94, 8.49, 8.49, 8.05, 8.05, 8.05, 8.05, 8.49, 8.49, 8.49, 8.49, 8.49, 8.49, 8.05, 8.05, 8.05, 8.05, 7.6, 7.15, 6.71, 6.26, 6.26, 5.81, 5.81, 5.81, 5.81, 5.81, 5.36, 5.36, 5.36, 5.36, 5.36, 5.36, 4.92, 4.92, 4.92, 4.92, 5.36, 6.26, 6.71, 7.15, 7.6, 7.15, 6.71, 7.15, 7.15, 7.15, 7.15, 7.15, 7.15, 7.15, 6.71, 6.71, 6.71, 6.71, 6.71, 6.71, 6.71, 6.71, 6.71, 6.71, 6.26, 6.26, 6.26, 6.26, 5.81, 5.81, 5.81, 5.81, 5.81, 5.81, 5.81, 5.81, 5.81, 5.81, 5.36, 5.36, 4.92, 4.92, 5.36, 5.81, 6.26, 7.15, 8.05, 8.94, 9.39, 9.83, 10.28, 10.28, 10.28, 10.28, 9.83, 9.83, 9.83, 9.39, 9.39, 9.39, 8.94, 8.94, 8.49, 8.49, 8.05, 8.05, 8.05, 8.49, 8.49, 8.49, 8.49, 8.49, 8.49, 8.05, 8.05, 8.05, 7.6, 7.6, 7.15, 6.71, 6.26, 6.26, 5.81, 5.81, 5.81, 5.36, 5.81, 5.81, 5.81, 5.36, 5.36, 5.36, 5.36, 5.36, 5.36, 5.36, 5.36, 4.92, 4.92, 5.36, 5.81, 6.71, 7.6, 7.6, 7.6, 7.15, 7.15, 6.71, 7.15, 7.15, 7.15, 7.15, 7.15, 6.71, 6.71, 6.71, 6.71, 6.71, 6.71, 6.71, 6.26, 6.26, 6.26, 6.26, 6.26, 5.81, 5.81, 5.81, 5.81, 5.81, 5.81, 5.81, 5.81, 5.81, 5.36, 5.36, 5.36, 5.36, 4.92, 5.36, 5.36, 5.81, 6.71, 7.6, 8.49, 9.39, 9.83, 10.28, 10.28, 10.28, 9.83, 9.83, 9.83, 9.83, 9.83, 9.39, 9.39, 9.39, 8.94, 8.94, 8.49, 8.49, 8.05, 8.05, 8.05, 8.49, 8.49, 8.49, 8.49, 8.49, 8.05, 8.05, 8.05, 7.6, 7.6, 7.15, 6.71, 6.71, 6.26, 5.81, 5.81, 5.81, 5.81, 5.36, 5.36, 5.36, 5.36, 5.36, 5.81, 5.81, 5.36, 5.36, 5.81, 5.81, 5.36, 5.36, 4.92, 4.92, 5.36, 5.81, 6.71, 7.6, 7.6, 7.6, 7.15, 6.71, 6.71, 7.15, 7.15, 6.71, 6.71, 6.71, 6.71, 6.71, 6.71, 6.71, 6.26, 6.26, 6.26, 6.26, 6.26, 5.81, 5.81, 5.81, 5.81, 5.81, 5.81, 5.36, 5.36, 5.36, 5.36, 5.36, 5.36, 5.36, 5.36, 4.92, 4.92, 5.36, 5.81, 6.26, 7.15, 8.05, 8.94, 9.39, 9.83, 9.83, 9.83, 9.83, 9.83, 9.83, 9.83, 9.83, 9.83, 9.39, 9.39, 9.39, 8.94, 8.94, 8.49, 8.49, 8.49, 8.05, 8.49, 8.49, 8.49, 8.49, 8.49, 8.05, 7.6, 7.6, 7.6, 7.6, 7.15, 6.71, 6.71, 6.26, 5.81, 5.81, 5.81, 5.81, 5.81, 5.81, 5.36, 5.36, 5.36, 5.36, 5.36, 5.81, 5.81, 5.81, 5.81, 5.81, 5.81, 5.36, 5.36, 4.92, 5.36, 5.81, 6.26, 8.05, 7.6, 7.6, 7.6, 7.15, 6.71, 6.71, 6.71, 6.26, 6.26, 6.26, 6.26, 6.26, 6.26, 6.26, 6.26, 6.26, 6.26, 5.81, 5.81, 5.81, 5.81, 5.81, 5.36, 5.36, 5.36, 5.36, 5.36, 5.36, 5.36, 5.36, 5.36, 5.36, 4.92, 4.92, 4.92, 5.36, 6.26, 6.71, 7.6, 8.49, 8.94, 9.39, 9.83, 9.83, 9.83, 9.83, 9.83, 9.83, 9.83, 9.83, 9.83, 9.39, 9.39, 9.39, 8.94, 8.94, 8.49, 8.49, 8.49, 8.49, 8.49, 8.49, 8.49, 8.05, 8.05, 8.05, 7.6, 7.6, 7.15, 7.15, 6.71, 6.71, 6.26, 6.26, 5.81, 5.81, 5.81, 5.36, 5.36, 5.36, 5.36, 5.36, 5.36, 5.36, 5.36, 5.36, 5.81, 6.26, 6.26, 6.26, 5.81, 5.81, 5.36, 5.36, 5.36, 5.81, 7.15, 7.6, 7.6, 7.6, 7.6, 7.6, 7.6, 7.15, 6.71, 6.26, 5.81, 5.81, 5.81, 5.81, 5.81, 6.26, 6.26, 6.26, 5.81, 5.81, 5.81, 5.36, 5.36, 5.36, 5.36, 5.36, 5.36, 5.36, 5.36, 5.36, 5.36, 4.92, 4.92, 4.92, 4.92, 4.92, 4.92, 5.81, 6.71, 7.15, 8.05, 8.94, 9.39, 9.39, 9.39, 9.39, 9.83, 9.83, 9.83, 9.83, 9.83, 9.83, 9.83, 9.83, 9.39, 9.39, 8.94, 8.94, 8.49, 8.49, 8.49, 8.49, 8.49, 8.05, 8.05, 8.05, 8.05, 7.6, 7.6, 7.15, 7.15, 6.71, 6.71, 6.26, 6.26, 5.81, 5.81, 5.81, 5.36, 5.36, 5.36, 5.36, 5.81, 5.81, 5.36, 5.36, 5.81, 5.81, 6.26, 6.26, 6.26, 6.26, 5.81, 5.81, 5.81, 5.81, 5.81, 6.26, 7.15, 8.05, 7.6, 7.6, 7.6, 7.6, 7.6, 7.6, 7.15, 6.26, 5.81, 5.81, 5.81, 5.81, 5.81, 5.81, 5.81, 5.81, 5.81, 5.36, 5.36, 5.36, 5.36, 5.36, 5.36, 4.92, 4.92, 4.92, 4.92, 4.92, 4.92, 4.92, 4.92, 4.92, 4.92, 4.92, 5.36, 5.81, 6.71, 7.6, 8.05, 8.94, 8.94, 9.39, 9.39, 9.39, 9.83, 9.83, 9.83, 10.28, 10.28, 9.83, 9.83, 9.83, 9.39, 9.39, 8.94, 8.94, 8.49, 8.49, 8.49, 8.49, 8.05, 8.05, 8.05, 7.6, 7.6, 7.6, 7.15, 7.15, 6.71, 6.71, 6.26, 6.26, 5.81, 5.81, 5.81, 5.36, 5.36, 5.36, 5.36, 5.36, 5.36, 5.36, 5.36, 5.36, 5.81, 6.26, 6.26, 6.26, 6.26, 6.26, 5.81, 5.81, 5.81, 5.81, 5.81, 5.81, 6.71, 8.05, 7.6, 7.6, 7.6, 7.6, 7.6, 7.6, 7.15, 6.71, 6.26, 5.81, 5.81, 5.81, 5.81, 5.81, 5.81, 5.81, 5.36, 5.36, 5.36, 4.92, 4.92, 4.92, 4.92, 4.92, 4.92, 4.92, 4.92, 4.92, 4.92, 4.92, 4.92, 4.92, 4.92, 4.92, 5.36, 5.81, 7.15, 7.6, 8.49, 8.49, 8.94, 8.94, 9.39, 9.83, 9.83, 10.28, 10.28, 10.28, 10.28, 10.28, 9.83, 9.83, 9.39, 9.39, 8.94, 8.94, 8.49, 8.49, 8.49, 8.05, 8.05, 7.6, 7.6, 7.6, 7.6, 7.15, 7.15, 6.71, 6.71, 6.26, 6.26, 5.81, 5.81, 5.81, 5.81, 5.36, 5.36, 5.36, 5.36, 5.36, 5.36, 5.36, 5.36, 5.81, 5.81, 6.26, 6.26, 6.26, 6.26, 6.26, 6.26, 6.26, 6.26, 6.26, 5.81, 5.81, 6.26, 7.6, 8.05, 7.6, 7.6, 7.6, 7.6, 7.6, 7.6, 7.15, 6.71, 5.81, 5.36, 5.36, 5.36, 5.81, 5.81, 5.36, 5.36, 5.36, 4.92, 4.92, 4.92, 4.92, 4.92, 4.47, 4.47, 4.47, 4.47, 4.47, 4.47, 4.47, 4.47, 4.47, 4.92, 5.36, 5.81, 6.26, 7.6, 8.05, 8.05, 8.49, 8.94, 9.39, 9.39, 9.83, 10.28, 10.28, 10.73, 10.73, 10.28, 10.28, 10.28, 9.83, 9.39, 9.39, 8.94, 8.49, 8.49, 8.05, 8.05, 8.05, 7.6, 7.6, 7.6, 7.6, 7.15, 7.15, 6.71, 6.71, 6.26, 6.26, 5.81, 5.81, 5.81, 5.81, 5.36, 5.36, 5.36, 5.36, 5.36, 5.36, 5.36, 5.36, 5.36, 5.81, 5.81, 6.26, 6.26, 6.26, 6.26, 6.26, 6.26, 6.26, 6.26, 6.26, 5.81, 5.81, 6.26, 7.15, 8.05, 7.6, 7.6, 7.6, 7.6, 7.6, 7.15, 6.71, 6.71, 5.81, 5.81, 5.81, 5.81, 5.36, 5.36, 5.36, 4.92, 4.92, 4.92, 4.92, 4.47, 4.47, 4.47, 4.47, 4.47, 4.47, 4.47, 4.47, 4.47, 4.47, 4.47, 4.47, 4.92, 5.36, 5.81, 6.26, 7.6, 8.05, 8.05, 8.49, 8.94, 9.39, 9.83, 10.28, 10.73, 10.73, 10.73, 10.73, 10.28, 10.28, 9.83, 9.83, 9.39, 8.94, 8.49, 8.49, 8.05, 8.05, 8.05, 7.6, 7.6, 7.6, 7.6, 7.6, 7.15, 7.15, 6.71, 6.26, 6.26, 5.81, 5.81, 5.81, 5.81, 5.36, 5.36, 5.36, 5.36, 5.36, 5.36, 5.36, 5.36, 5.36, 5.36, 5.81, 5.81, 5.81, 6.26, 6.26, 6.26, 6.26, 6.71, 6.26, 6.71, 6.26, 6.26, 5.81, 6.26, 7.15, 7.6, 7.6, 7.6, 7.6, 7.6, 7.6, 7.15, 6.71, 6.71, 6.26, 5.81, 5.81, 5.81, 5.36, 5.36, 4.92, 4.92, 4.92, 4.47, 4.47, 4.47, 4.47, 4.47, 4.02, 4.02, 4.02, 4.02, 4.02, 4.02, 4.47, 4.47, 4.92, 4.92, 5.81, 6.26, 6.71, 7.15, 8.05, 8.49, 8.94, 9.39, 9.83, 10.28, 10.73, 10.73, 10.73, 10.73, 10.73, 10.28, 10.28, 9.83, 9.39, 8.94, 8.94, 8.49, 8.05, 8.05, 8.05, 7.6, 7.6, 7.6, 7.6, 7.6, 7.6, 7.15, 6.71, 6.26, 6.26, 5.81, 5.81, 5.81, 5.81, 5.36, 5.36, 5.36, 5.36, 5.36, 5.36, 5.36, 5.36, 5.36, 5.36, 5.36, 5.81, 5.81, 5.81, 5.81, 6.26, 6.26, 6.26, 6.71, 6.71, 6.71, 6.71, 6.26, 6.26, 6.71, 7.15, 7.6, 7.6, 7.6, 7.6, 7.6, 7.6, 7.15, 7.15, 6.71, 6.71, 6.26, 6.26, 6.26, 4.92, 4.92, 4.92, 4.92, 4.47, 4.47, 4.47, 4.02, 4.02, 4.02, 4.02, 4.02, 4.02, 4.02, 4.02, 4.02, 4.47, 4.47, 4.92, 5.36, 5.81, 6.26, 6.71, 7.15, 8.05, 8.49, 9.39, 9.83, 10.28, 10.73, 11.18, 11.18, 10.73, 10.73, 10.73, 10.28, 9.83, 9.83, 9.39, 8.94, 8.49, 8.05, 8.05, 8.05, 7.6, 7.6, 7.6, 7.6, 7.6, 7.6, 7.6, 6.71, 6.71, 6.26, 5.81, 5.81, 5.36, 5.36, 5.36, 5.36, 5.36, 5.36, 5.36, 5.36, 5.36, 5.36, 5.36, 5.36, 5.36, 5.36, 5.36, 5.81, 5.81, 5.81, 5.81, 6.26, 6.26, 6.71, 6.71, 6.71, 6.26, 6.26, 6.26, 6.71, 7.15, 7.6, 7.6, 7.6, 7.6, 7.6, 7.6, 7.15, 7.15, 6.71, 6.71, 6.71, 6.71, 6.71, 4.92, 4.92, 4.92, 4.47, 4.47, 4.02, 4.02, 4.02, 4.02, 3.58, 3.58, 3.58, 3.58, 3.58, 4.02, 4.02, 4.47, 4.92, 4.92, 5.36, 6.26, 6.71, 7.15, 7.6, 8.49, 9.39, 9.83, 10.28, 10.73, 11.18, 11.18, 11.18, 10.73, 10.73, 10.28, 10.28, 9.83, 9.39, 8.94, 8.49, 8.05, 8.05, 8.05, 7.6, 8.05, 8.05, 8.05, 7.6, 7.6, 7.6, 7.15, 6.71, 6.26, 6.26, 5.81, 5.36, 5.36, 5.36, 5.36, 5.36, 5.36, 5.36, 5.36, 5.36, 5.36, 5.36, 5.36, 5.36, 5.36, 5.36, 5.36, 5.36, 5.81, 5.81, 5.81, 6.26, 6.26, 6.71, 6.71, 6.71, 6.71, 6.26, 6.26, 6.71, 7.15, 7.6, 7.6, 7.6, 7.6, 7.6, 7.15, 7.15, 6.71, 6.71, 6.71, 6.71, 6.71, 6.71, 4.92, 4.92, 4.92, 4.47, 4.47, 4.02, 4.02, 4.02, 4.02, 3.58, 3.58, 3.58, 3.58, 3.58, 4.02, 4.02, 4.47, 4.92, 4.92, 5.36, 6.26, 6.71, 7.15, 7.6, 8.49, 9.39, 9.83, 10.28, 10.73, 11.18, 11.18, 11.18, 10.73, 10.73, 10.28, 10.28, 9.83, 9.39, 8.94, 8.49, 8.05, 8.05, 8.05, 7.6, 8.05, 8.05, 8.05, 7.6, 7.6, 7.6, 7.15, 6.71, 6.26, 6.26, 5.81, 5.36, 5.36, 5.36, 5.36, 5.36, 5.36, 5.36, 5.36, 5.36, 5.36, 5.36, 5.36, 5.36, 5.36, 5.36, 5.36, 5.36, 5.81, 5.81, 5.81, 6.26, 6.71, 6.71, 6.71, 6.71, 6.71, 6.71, 6.71, 6.71, 7.15, 7.15, 7.15, 7.15, 7.15, 7.15, 7.15, 6.71, 6.71, 6.26, 6.26, 6.26, 6.26, 6.26]}]